Wetterdaten: Donnerstag, 29.09.2016
Datum Zeit Temp. A. Feuchte A. Luftdruck Regen Wind Richtung Richtung Sonnenschein ET UV Solar Taupunkt Windchill Windben Empfang
29.09.2016 00:00 15,2 C 85 % 1026,4 hPa 0,0 l/m 11,0 km/h (2 Bft) SW 227 0 min 0,000 mm 0,0 UV-I 0 W/m 12,7 C 12,9 C 16,1 km/h (3 Bft) 100,00 %
29.09.2016 00:02 15,2 C 85 % 1026,4 hPa 0,0 l/m 8,0 km/h (2 Bft) S-SW 212 0 min 0,000 mm 0,0 UV-I 0 W/m 12,7 C 14,3 C 8,0 km/h (2 Bft) 100,00 %
29.09.2016 00:04 15,2 C 85 % 1026,4 hPa 0,0 l/m 9,6 km/h (2 Bft) SW 234 0 min 0,000 mm 0,0 UV-I 0 W/m 12,7 C 13,5 C 17,7 km/h (3 Bft) 100,00 %
29.09.2016 00:06 15,2 C 85 % 1026,4 hPa 0,0 l/m 11,2 km/h (2 Bft) W-SW 253 0 min 0,000 mm 0,0 UV-I 0 W/m 12,7 C 12,8 C 14,5 km/h (3 Bft) 100,00 %
29.09.2016 00:08 15,2 C 85 % 1026,4 hPa 0,0 l/m 10,5 km/h (2 Bft) S-SW 202 0 min 0,000 mm 0,0 UV-I 0 W/m 12,7 C 13,1 C 17,7 km/h (3 Bft) 100,00 %
29.09.2016 00:10 15,2 C 85 % 1026,4 hPa 0,0 l/m 11,1 km/h (2 Bft) SW 232 0 min 0,000 mm 0,0 UV-I 0 W/m 12,7 C 12,9 C 14,5 km/h (3 Bft) 97,87 %
29.09.2016 00:12 15,2 C 85 % 1026,4 hPa 0,0 l/m 10,7 km/h (2 Bft) SW 217 0 min 0,000 mm 0,0 UV-I 0 W/m 12,7 C 13,0 C 16,1 km/h (3 Bft) 100,00 %
29.09.2016 00:14 15,1 C 85 % 1026,4 hPa 0,0 l/m 10,5 km/h (2 Bft) W-SW 239 0 min 0,000 mm 0,0 UV-I 0 W/m 12,6 C 13,0 C 17,7 km/h (3 Bft) 100,00 %
29.09.2016 00:16 15,1 C 85 % 1026,4 hPa 0,0 l/m 9,9 km/h (2 Bft) W-SW 238 0 min 0,000 mm 0,0 UV-I 0 W/m 12,6 C 13,3 C 17,7 km/h (3 Bft) 100,00 %
29.09.2016 00:18 15,1 C 85 % 1026,4 hPa 0,0 l/m 9,9 km/h (2 Bft) S-SW 213 0 min 0,000 mm 0,0 UV-I 0 W/m 12,6 C 13,3 C 14,5 km/h (3 Bft) 100,00 %
29.09.2016 00:20 15,0 C 85 % 1026,4 hPa 0,0 l/m 10,3 km/h (2 Bft) S-SW 205 0 min 0,000 mm 0,0 UV-I 0 W/m 12,5 C 13,0 C 16,1 km/h (3 Bft) 100,00 %
29.09.2016 00:22 14,9 C 85 % 1026,4 hPa 0,0 l/m 10,8 km/h (2 Bft) W-SW 246 0 min 0,000 mm 0,0 UV-I 0 W/m 12,4 C 12,7 C 14,5 km/h (3 Bft) 100,00 %
29.09.2016 00:24 14,9 C 85 % 1026,5 hPa 0,0 l/m 12,6 km/h (3 Bft) SW 223 0 min 0,000 mm 0,0 UV-I 0 W/m 12,4 C 11,9 C 17,7 km/h (3 Bft) 100,00 %
29.09.2016 00:26 14,9 C 85 % 1026,4 hPa 0,0 l/m 11,8 km/h (2 Bft) W-SW 238 0 min 0,000 mm 0,0 UV-I 0 W/m 12,4 C 12,2 C 14,5 km/h (3 Bft) 100,00 %
29.09.2016 00:28 14,8 C 85 % 1026,4 hPa 0,0 l/m 13,9 km/h (3 Bft) SW 222 0 min 0,000 mm 0,0 UV-I 0 W/m 12,3 C 11,3 C 19,3 km/h (3 Bft) 100,00 %
29.09.2016 00:30 14,8 C 85 % 1026,4 hPa 0,0 l/m 11,6 km/h (2 Bft) SW 219 0 min 0,000 mm 0,0 UV-I 0 W/m 12,3 C 12,2 C 16,1 km/h (3 Bft) 100,00 %
29.09.2016 00:32 14,8 C 85 % 1026,4 hPa 0,0 l/m 11,4 km/h (2 Bft) SW 228 0 min 0,000 mm 0,0 UV-I 0 W/m 12,3 C 12,3 C 14,5 km/h (3 Bft) 100,00 %
29.09.2016 00:34 14,8 C 85 % 1026,4 hPa 0,0 l/m 13,3 km/h (3 Bft) SW 218 0 min 0,000 mm 0,0 UV-I 0 W/m 12,3 C 11,5 C 17,7 km/h (3 Bft) 100,00 %
29.09.2016 00:36 14,7 C 85 % 1026,4 hPa 0,0 l/m 9,2 km/h (2 Bft) S-SW 211 0 min 0,000 mm 0,0 UV-I 0 W/m 12,2 C 13,2 C 12,9 km/h (3 Bft) 97,87 %
29.09.2016 00:38 14,7 C 85 % 1026,4 hPa 0,0 l/m 10,2 km/h (2 Bft) W-SW 238 0 min 0,000 mm 0,0 UV-I 0 W/m 12,2 C 12,7 C 16,1 km/h (3 Bft) 100,00 %
29.09.2016 00:40 14,7 C 86 % 1026,4 hPa 0,0 l/m 9,3 km/h (2 Bft) SW 223 0 min 0,000 mm 0,0 UV-I 0 W/m 12,4 C 13,1 C 16,1 km/h (3 Bft) 97,87 %
29.09.2016 00:42 14,7 C 86 % 1026,4 hPa 0,0 l/m 10,9 km/h (2 Bft) SW 236 0 min 0,000 mm 0,0 UV-I 0 W/m 12,4 C 12,4 C 14,5 km/h (3 Bft) 97,87 %
29.09.2016 00:44 14,6 C 86 % 1026,4 hPa 0,0 l/m 9,4 km/h (2 Bft) S-SW 208 0 min 0,000 mm 0,0 UV-I 0 W/m 12,3 C 13,0 C 14,5 km/h (3 Bft) 97,87 %
29.09.2016 00:46 14,6 C 86 % 1026,4 hPa 0,0 l/m 9,5 km/h (2 Bft) SW 227 0 min 0,000 mm 0,0 UV-I 0 W/m 12,3 C 12,9 C 16,1 km/h (3 Bft) 98,00 %
29.09.2016 00:48 14,6 C 86 % 1026,5 hPa 0,0 l/m 9,2 km/h (2 Bft) SW 217 0 min 0,000 mm 0,0 UV-I 0 W/m 12,3 C 13,1 C 12,9 km/h (3 Bft) 97,87 %
29.09.2016 00:50 14,6 C 86 % 1026,4 hPa 0,0 l/m 10,5 km/h (2 Bft) SW 230 0 min 0,000 mm 0,0 UV-I 0 W/m 12,3 C 12,4 C 14,5 km/h (3 Bft) 93,62 %
29.09.2016 00:52 14,5 C 86 % 1026,4 hPa 0,0 l/m 8,5 km/h (2 Bft) W-SW 239 0 min 0,000 mm 0,0 UV-I 0 W/m 12,2 C 13,3 C 11,3 km/h (2 Bft) 97,87 %
29.09.2016 00:54 14,5 C 86 % 1026,4 hPa 0,0 l/m 10,1 km/h (2 Bft) W-SW 252 0 min 0,000 mm 0,0 UV-I 0 W/m 12,2 C 12,5 C 12,9 km/h (3 Bft) 97,22 %
29.09.2016 00:56 14,4 C 86 % 1026,4 hPa 0,0 l/m 10,9 km/h (2 Bft) W-SW 240 0 min 0,000 mm 0,0 UV-I 0 W/m 12,1 C 12,0 C 14,5 km/h (3 Bft) 95,74 %
29.09.2016 00:58 14,4 C 86 % 1026,4 hPa 0,0 l/m 9,0 km/h (2 Bft) SW 233 0 min 0,000 mm 0,0 UV-I 0 W/m 12,1 C 12,9 C 14,5 km/h (3 Bft) 97,87 %
29.09.2016 01:00 14,4 C 86 % 1026,4 hPa 0,0 l/m 10,8 km/h (2 Bft) W-SW 238 0 min 0,025 mm 0,0 UV-I 0 W/m 12,1 C 12,1 C 16,1 km/h (3 Bft) 96,00 %
29.09.2016 01:02 14,4 C 86 % 1026,4 hPa 0,0 l/m 7,9 km/h (2 Bft) SW 227 0 min 0,000 mm 0,0 UV-I 0 W/m 12,1 C 13,5 C 12,9 km/h (3 Bft) 97,87 %
29.09.2016 01:04 14,4 C 87 % 1026,3 hPa 0,0 l/m 9,8 km/h (2 Bft) SW 232 0 min 0,000 mm 0,0 UV-I 0 W/m 12,3 C 12,5 C 16,1 km/h (3 Bft) 97,87 %
29.09.2016 01:06 14,4 C 87 % 1026,4 hPa 0,0 l/m 9,0 km/h (2 Bft) S-SW 206 0 min 0,000 mm 0,0 UV-I 0 W/m 12,3 C 12,9 C 12,9 km/h (3 Bft) 97,87 %
29.09.2016 01:08 14,3 C 87 % 1026,4 hPa 0,0 l/m 7,5 km/h (2 Bft) SW 215 0 min 0,000 mm 0,0 UV-I 0 W/m 12,2 C 13,7 C 12,9 km/h (3 Bft) 97,87 %
29.09.2016 01:10 14,4 C 87 % 1026,4 hPa 0,0 l/m 11,9 km/h (2 Bft) SW 230 0 min 0,000 mm 0,0 UV-I 0 W/m 12,3 C 11,6 C 14,5 km/h (3 Bft) 95,74 %
29.09.2016 01:12 14,3 C 87 % 1026,3 hPa 0,0 l/m 10,6 km/h (2 Bft) W-SW 238 0 min 0,000 mm 0,0 UV-I 0 W/m 12,2 C 12,1 C 14,5 km/h (3 Bft) 97,87 %
29.09.2016 01:14 14,3 C 87 % 1026,4 hPa 0,0 l/m 9,8 km/h (2 Bft) SW 232 0 min 0,000 mm 0,0 UV-I 0 W/m 12,2 C 12,4 C 14,5 km/h (3 Bft) 97,87 %
29.09.2016 01:16 14,3 C 87 % 1026,4 hPa 0,0 l/m 9,6 km/h (2 Bft) W-SW 238 0 min 0,000 mm 0,0 UV-I 0 W/m 12,2 C 12,5 C 14,5 km/h (3 Bft) 100,00 %
29.09.2016 01:18 14,3 C 87 % 1026,4 hPa 0,0 l/m 10,4 km/h (2 Bft) W-SW 248 0 min 0,000 mm 0,0 UV-I 0 W/m 12,2 C 12,2 C 12,9 km/h (3 Bft) 100,00 %
29.09.2016 01:20 14,3 C 87 % 1026,4 hPa 0,0 l/m 9,3 km/h (2 Bft) W-SW 243 0 min 0,000 mm 0,0 UV-I 0 W/m 12,2 C 12,7 C 12,9 km/h (3 Bft) 97,87 %
29.09.2016 01:22 14,4 C 87 % 1026,4 hPa 0,0 l/m 10,3 km/h (2 Bft) SW 236 0 min 0,000 mm 0,0 UV-I 0 W/m 12,3 C 12,3 C 14,5 km/h (3 Bft) 97,87 %
29.09.2016 01:24 14,4 C 87 % 1026,4 hPa 0,0 l/m 9,3 km/h (2 Bft) SW 221 0 min 0,000 mm 0,0 UV-I 0 W/m 12,3 C 12,8 C 14,5 km/h (3 Bft) 100,00 %
29.09.2016 01:26 14,4 C 87 % 1026,4 hPa 0,0 l/m 9,3 km/h (2 Bft) SW 232 0 min 0,000 mm 0,0 UV-I 0 W/m 12,3 C 12,8 C 14,5 km/h (3 Bft) 100,00 %
29.09.2016 01:28 14,4 C 87 % 1026,3 hPa 0,0 l/m 8,6 km/h (2 Bft) SW 233 0 min 0,000 mm 0,0 UV-I 0 W/m 12,3 C 13,1 C 12,9 km/h (3 Bft) 97,87 %
29.09.2016 01:30 14,4 C 87 % 1026,4 hPa 0,0 l/m 9,3 km/h (2 Bft) W-SW 244 0 min 0,000 mm 0,0 UV-I 0 W/m 12,3 C 12,8 C 14,5 km/h (3 Bft) 100,00 %
29.09.2016 01:32 14,4 C 87 % 1026,4 hPa 0,0 l/m 8,9 km/h (2 Bft) SW 227 0 min 0,000 mm 0,0 UV-I 0 W/m 12,3 C 13,0 C 12,9 km/h (3 Bft) 95,74 %
29.09.2016 01:34 14,4 C 87 % 1026,4 hPa 0,0 l/m 8,5 km/h (2 Bft) SW 232 0 min 0,000 mm 0,0 UV-I 0 W/m 12,3 C 13,2 C 12,9 km/h (3 Bft) 97,87 %
29.09.2016 01:36 14,4 C 87 % 1026,4 hPa 0,0 l/m 8,5 km/h (2 Bft) SW 232 0 min 0,000 mm 0,0 UV-I 0 W/m 12,3 C 13,2 C 14,5 km/h (3 Bft) 100,00 %
29.09.2016 01:38 14,4 C 87 % 1026,4 hPa 0,0 l/m 7,1 km/h (2 Bft) SW 223 0 min 0,000 mm 0,0 UV-I 0 W/m 12,3 C 14,0 C 9,7 km/h (2 Bft) 100,00 %
29.09.2016 01:40 14,4 C 87 % 1026,4 hPa 0,0 l/m 7,4 km/h (2 Bft) W-SW 246 0 min 0,000 mm 0,0 UV-I 0 W/m 12,3 C 13,8 C 11,3 km/h (2 Bft) 100,00 %
29.09.2016 01:42 14,4 C 87 % 1026,4 hPa 0,0 l/m 6,8 km/h (2 Bft) SW 217 0 min 0,000 mm 0,0 UV-I 0 W/m 12,3 C 14,2 C 11,3 km/h (2 Bft) 100,00 %
29.09.2016 01:44 14,3 C 87 % 1026,4 hPa 0,0 l/m 6,7 km/h (2 Bft) SW 215 0 min 0,000 mm 0,0 UV-I 0 W/m 12,2 C 14,1 C 11,3 km/h (2 Bft) 100,00 %
29.09.2016 01:46 14,3 C 87 % 1026,3 hPa 0,0 l/m 6,4 km/h (2 Bft) S-SW 202 0 min 0,000 mm 0,0 UV-I 0 W/m 12,2 C 14,3 C 9,7 km/h (2 Bft) 100,00 %
29.09.2016 01:48 14,3 C 87 % 1026,3 hPa 0,0 l/m 6,8 km/h (2 Bft) SW 227 0 min 0,000 mm 0,0 UV-I 0 W/m 12,2 C 14,1 C 11,3 km/h (2 Bft) 97,87 %
29.09.2016 01:50 14,3 C 87 % 1026,3 hPa 0,0 l/m 7,1 km/h (2 Bft) SW 230 0 min 0,000 mm 0,0 UV-I 0 W/m 12,2 C 13,9 C 9,7 km/h (2 Bft) 100,00 %
29.09.2016 01:52 14,4 C 87 % 1026,3 hPa 0,0 l/m 6,9 km/h (2 Bft) SW 217 0 min 0,000 mm 0,0 UV-I 0 W/m 12,3 C 14,1 C 9,7 km/h (2 Bft) 97,87 %
29.09.2016 01:54 14,4 C 87 % 1026,3 hPa 0,0 l/m 6,9 km/h (2 Bft) W-SW 240 0 min 0,000 mm 0,0 UV-I 0 W/m 12,3 C 14,1 C 12,9 km/h (3 Bft) 100,00 %
29.09.2016 01:56 14,4 C 86 % 1026,4 hPa 0,0 l/m 9,8 km/h (2 Bft) SW 234 0 min 0,000 mm 0,0 UV-I 0 W/m 12,1 C 12,5 C 14,5 km/h (3 Bft) 100,00 %
29.09.2016 01:58 14,4 C 86 % 1026,4 hPa 0,0 l/m 7,5 km/h (2 Bft) W-SW 247 0 min 0,000 mm 0,0 UV-I 0 W/m 12,1 C 13,8 C 11,3 km/h (2 Bft) 95,74 %
29.09.2016 02:00 14,3 C 86 % 1026,3 hPa 0,0 l/m 7,5 km/h (2 Bft) SW 219 0 min 0,026 mm 0,0 UV-I 0 W/m 12,0 C 13,7 C 9,7 km/h (2 Bft) 97,87 %
29.09.2016 02:02 14,3 C 87 % 1026,2 hPa 0,0 l/m 7,5 km/h (2 Bft) S-SW 207 0 min 0,000 mm 0,0 UV-I 0 W/m 12,2 C 13,7 C 11,3 km/h (2 Bft) 97,87 %
29.09.2016 02:04 14,3 C 87 % 1026,2 hPa 0,0 l/m 8,9 km/h (2 Bft) SW 217 0 min 0,000 mm 0,0 UV-I 0 W/m 12,2 C 12,9 C 14,5 km/h (3 Bft) 97,87 %
29.09.2016 02:06 14,3 C 87 % 1026,2 hPa 0,0 l/m 8,2 km/h (2 Bft) W-SW 238 0 min 0,000 mm 0,0 UV-I 0 W/m 12,2 C 13,3 C 12,9 km/h (3 Bft) 95,74 %
29.09.2016 02:08 14,3 C 86 % 1026,3 hPa 0,0 l/m 6,9 km/h (2 Bft) W-SW 243 0 min 0,000 mm 0,0 UV-I 0 W/m 12,0 C 14,0 C 9,7 km/h (2 Bft) 100,00 %
29.09.2016 02:10 14,3 C 86 % 1026,2 hPa 0,0 l/m 8,3 km/h (2 Bft) W-SW 239 0 min 0,000 mm 0,0 UV-I 0 W/m 12,0 C 13,2 C 12,9 km/h (3 Bft) 97,87 %
29.09.2016 02:12 14,3 C 86 % 1026,2 hPa 0,0 l/m 8,2 km/h (2 Bft) W-SW 237 0 min 0,000 mm 0,0 UV-I 0 W/m 12,0 C 13,3 C 11,3 km/h (2 Bft) 100,00 %
29.09.2016 02:14 14,3 C 86 % 1026,1 hPa 0,0 l/m 8,6 km/h (2 Bft) SW 216 0 min 0,000 mm 0,0 UV-I 0 W/m 12,0 C 13,0 C 12,9 km/h (3 Bft) 98,00 %
29.09.2016 02:16 14,3 C 86 % 1026,1 hPa 0,0 l/m 7,8 km/h (2 Bft) W-SW 253 0 min 0,000 mm 0,0 UV-I 0 W/m 12,0 C 13,5 C 12,9 km/h (3 Bft) 100,00 %
29.09.2016 02:18 14,3 C 86 % 1026,1 hPa 0,0 l/m 8,7 km/h (2 Bft) SW 223 0 min 0,000 mm 0,0 UV-I 0 W/m 12,0 C 13,0 C 12,9 km/h (3 Bft) 97,87 %
29.09.2016 02:20 14,3 C 86 % 1026,1 hPa 0,0 l/m 8,3 km/h (2 Bft) W-SW 244 0 min 0,000 mm 0,0 UV-I 0 W/m 12,0 C 13,2 C 12,9 km/h (3 Bft) 100,00 %
29.09.2016 02:22 14,3 C 86 % 1026,1 hPa 0,0 l/m 8,6 km/h (2 Bft) S-SW 201 0 min 0,000 mm 0,0 UV-I 0 W/m 12,0 C 13,0 C 11,3 km/h (2 Bft) 100,00 %
29.09.2016 02:24 14,3 C 85 % 1026,1 hPa 0,0 l/m 12,4 km/h (3 Bft) SW 225 0 min 0,000 mm 0,0 UV-I 0 W/m 11,8 C 11,3 C 17,7 km/h (3 Bft) 100,00 %
29.09.2016 02:26 14,4 C 85 % 1026,0 hPa 0,0 l/m 9,7 km/h (2 Bft) SW 225 0 min 0,000 mm 0,0 UV-I 0 W/m 11,9 C 12,6 C 16,1 km/h (3 Bft) 100,00 %
29.09.2016 02:28 14,4 C 85 % 1026,0 hPa 0,0 l/m 9,1 km/h (2 Bft) SW 228 0 min 0,000 mm 0,0 UV-I 0 W/m 11,9 C 12,9 C 12,9 km/h (3 Bft) 100,00 %
29.09.2016 02:30 14,4 C 85 % 1026,0 hPa 0,0 l/m 8,4 km/h (2 Bft) SW 234 0 min 0,000 mm 0,0 UV-I 0 W/m 11,9 C 13,3 C 12,9 km/h (3 Bft) 97,87 %
29.09.2016 02:32 14,4 C 85 % 1026,0 hPa 0,0 l/m 8,0 km/h (2 Bft) SW 235 0 min 0,000 mm 0,0 UV-I 0 W/m 11,9 C 13,5 C 11,3 km/h (2 Bft) 100,00 %
29.09.2016 02:34 14,4 C 85 % 1026,0 hPa 0,0 l/m 8,6 km/h (2 Bft) SW 232 0 min 0,000 mm 0,0 UV-I 0 W/m 11,9 C 13,1 C 16,1 km/h (3 Bft) 95,74 %
29.09.2016 02:36 14,4 C 85 % 1026,0 hPa 0,0 l/m 9,8 km/h (2 Bft) SW 217 0 min 0,000 mm 0,0 UV-I 0 W/m 11,9 C 12,5 C 16,1 km/h (3 Bft) 95,74 %
29.09.2016 02:38 14,4 C 85 % 1026,0 hPa 0,0 l/m 10,6 km/h (2 Bft) SW 230 0 min 0,000 mm 0,0 UV-I 0 W/m 11,9 C 12,2 C 14,5 km/h (3 Bft) 100,00 %
29.09.2016 02:40 14,4 C 85 % 1025,9 hPa 0,0 l/m 12,1 km/h (2 Bft) SW 225 0 min 0,000 mm 0,0 UV-I 0 W/m 11,9 C 11,5 C 19,3 km/h (3 Bft) 97,87 %
29.09.2016 02:42 14,4 C 85 % 1025,9 hPa 0,0 l/m 11,6 km/h (2 Bft) SW 220 0 min 0,000 mm 0,0 UV-I 0 W/m 11,9 C 11,7 C 17,7 km/h (3 Bft) 97,14 %
29.09.2016 02:44 14,4 C 85 % 1025,9 hPa 0,0 l/m 11,0 km/h (2 Bft) S-SW 197 0 min 0,000 mm 0,0 UV-I 0 W/m 11,9 C 12,0 C 16,1 km/h (3 Bft) 97,87 %
29.09.2016 02:46 14,4 C 85 % 1025,9 hPa 0,0 l/m 11,3 km/h (2 Bft) S-SW 205 0 min 0,000 mm 0,0 UV-I 0 W/m 11,9 C 11,9 C 16,1 km/h (3 Bft) 95,74 %
29.09.2016 02:48 14,4 C 85 % 1025,9 hPa 0,0 l/m 10,9 km/h (2 Bft) W-SW 246 0 min 0,000 mm 0,0 UV-I 0 W/m 11,9 C 12,0 C 16,1 km/h (3 Bft) 98,00 %
29.09.2016 02:50 14,5 C 85 % 1025,9 hPa 0,0 l/m 12,8 km/h (3 Bft) SW 235 0 min 0,000 mm 0,0 UV-I 0 W/m 12,0 C 11,4 C 17,7 km/h (3 Bft) 95,74 %
29.09.2016 02:52 14,5 C 85 % 1025,9 hPa 0,0 l/m 12,1 km/h (2 Bft) SW 234 0 min 0,000 mm 0,0 UV-I 0 W/m 12,0 C 11,7 C 19,3 km/h (3 Bft) 95,74 %
29.09.2016 02:54 14,6 C 85 % 1025,9 hPa 0,0 l/m 13,1 km/h (3 Bft) SW 231 0 min 0,000 mm 0,0 UV-I 0 W/m 12,1 C 11,4 C 17,7 km/h (3 Bft) 97,87 %
29.09.2016 02:56 14,6 C 85 % 1025,9 hPa 0,0 l/m 12,0 km/h (2 Bft) SW 227 0 min 0,000 mm 0,0 UV-I 0 W/m 12,1 C 11,8 C 16,1 km/h (3 Bft) 95,83 %
29.09.2016 02:58 14,6 C 85 % 1025,8 hPa 0,0 l/m 11,9 km/h (2 Bft) W-SW 240 0 min 0,000 mm 0,0 UV-I 0 W/m 12,1 C 11,9 C 17,7 km/h (3 Bft) 95,74 %
29.09.2016 03:00 14,7 C 85 % 1025,8 hPa 0,0 l/m 11,7 km/h (2 Bft) SW 229 0 min 0,025 mm 0,0 UV-I 0 W/m 12,2 C 12,0 C 17,7 km/h (3 Bft) 93,62 %
29.09.2016 03:02 14,7 C 84 % 1025,8 hPa 0,0 l/m 11,2 km/h (2 Bft) SW 225 0 min 0,000 mm 0,0 UV-I 0 W/m 12,0 C 12,3 C 16,1 km/h (3 Bft) 98,00 %
29.09.2016 03:04 14,7 C 85 % 1025,7 hPa 0,0 l/m 12,1 km/h (2 Bft) W-SW 240 0 min 0,000 mm 0,0 UV-I 0 W/m 12,2 C 11,9 C 16,1 km/h (3 Bft) 95,74 %
29.09.2016 03:06 14,7 C 84 % 1025,7 hPa 0,0 l/m 11,4 km/h (2 Bft) SW 234 0 min 0,000 mm 0,0 UV-I 0 W/m 12,0 C 12,2 C 17,7 km/h (3 Bft) 97,87 %
29.09.2016 03:08 14,7 C 84 % 1025,8 hPa 0,0 l/m 11,8 km/h (2 Bft) SW 220 0 min 0,000 mm 0,0 UV-I 0 W/m 12,0 C 12,0 C 17,7 km/h (3 Bft) 97,96 %
29.09.2016 03:10 14,8 C 84 % 1025,7 hPa 0,0 l/m 12,4 km/h (3 Bft) SW 218 0 min 0,000 mm 0,0 UV-I 0 W/m 12,1 C 11,9 C 17,7 km/h (3 Bft) 95,74 %
29.09.2016 03:12 14,8 C 84 % 1025,7 hPa 0,0 l/m 10,0 km/h (2 Bft) S-SW 211 0 min 0,000 mm 0,0 UV-I 0 W/m 12,1 C 12,9 C 14,5 km/h (3 Bft) 97,87 %
29.09.2016 03:14 14,8 C 84 % 1025,7 hPa 0,0 l/m 12,2 km/h (2 Bft) W-SW 237 0 min 0,000 mm 0,0 UV-I 0 W/m 12,1 C 12,0 C 19,3 km/h (3 Bft) 95,74 %
29.09.2016 03:16 14,8 C 83 % 1025,6 hPa 0,0 l/m 14,0 km/h (3 Bft) W-SW 239 0 min 0,000 mm 0,0 UV-I 0 W/m 11,9 C 11,3 C 19,3 km/h (3 Bft) 97,37 %
29.09.2016 03:18 14,8 C 83 % 1025,6 hPa 0,0 l/m 11,3 km/h (2 Bft) W-SW 242 0 min 0,000 mm 0,0 UV-I 0 W/m 11,9 C 12,3 C 16,1 km/h (3 Bft) 96,00 %
29.09.2016 03:20 14,8 C 83 % 1025,6 hPa 0,0 l/m 12,8 km/h (3 Bft) SW 225 0 min 0,000 mm 0,0 UV-I 0 W/m 11,9 C 11,7 C 17,7 km/h (3 Bft) 98,00 %
29.09.2016 03:22 14,9 C 83 % 1025,6 hPa 0,0 l/m 14,8 km/h (3 Bft) SW 223 0 min 0,000 mm 0,0 UV-I 0 W/m 12,0 C 11,1 C 20,9 km/h (4 Bft) 100,00 %
29.09.2016 03:24 14,9 C 83 % 1025,6 hPa 0,0 l/m 13,9 km/h (3 Bft) W-SW 240 0 min 0,000 mm 0,0 UV-I 0 W/m 12,0 C 11,4 C 20,9 km/h (4 Bft) 100,00 %
29.09.2016 03:26 14,9 C 82 % 1025,6 hPa 0,0 l/m 12,4 km/h (3 Bft) S-SW 198 0 min 0,000 mm 0,0 UV-I 0 W/m 11,9 C 12,0 C 17,7 km/h (3 Bft) 100,00 %
29.09.2016 03:28 14,9 C 82 % 1025,5 hPa 0,0 l/m 13,2 km/h (3 Bft) SW 232 0 min 0,000 mm 0,0 UV-I 0 W/m 11,9 C 11,7 C 17,7 km/h (3 Bft) 100,00 %
29.09.2016 03:30 15,0 C 82 % 1025,5 hPa 0,0 l/m 11,4 km/h (2 Bft) SW 233 0 min 0,000 mm 0,0 UV-I 0 W/m 12,0 C 12,5 C 16,1 km/h (3 Bft) 100,00 %
29.09.2016 03:32 15,0 C 82 % 1025,5 hPa 0,0 l/m 10,9 km/h (2 Bft) SW 234 0 min 0,000 mm 0,0 UV-I 0 W/m 12,0 C 12,7 C 14,5 km/h (3 Bft) 100,00 %
29.09.2016 03:34 14,9 C 82 % 1025,5 hPa 0,0 l/m 11,7 km/h (2 Bft) W-SW 244 0 min 0,000 mm 0,0 UV-I 0 W/m 11,9 C 12,3 C 17,7 km/h (3 Bft) 95,74 %
29.09.2016 03:36 14,9 C 82 % 1025,5 hPa 0,0 l/m 12,2 km/h (2 Bft) SW 217 0 min 0,000 mm 0,0 UV-I 0 W/m 11,9 C 12,1 C 16,1 km/h (3 Bft) 100,00 %
29.09.2016 03:38 14,9 C 82 % 1025,4 hPa 0,0 l/m 11,8 km/h (2 Bft) SW 225 0 min 0,000 mm 0,0 UV-I 0 W/m 11,9 C 12,2 C 16,1 km/h (3 Bft) 100,00 %
29.09.2016 03:40 14,9 C 82 % 1025,4 hPa 0,0 l/m 12,0 km/h (2 Bft) SW 236 0 min 0,000 mm 0,0 UV-I 0 W/m 11,9 C 12,2 C 17,7 km/h (3 Bft) 100,00 %
29.09.2016 03:42 14,9 C 81 % 1025,4 hPa 0,0 l/m 12,6 km/h (3 Bft) W-SW 238 0 min 0,000 mm 0,0 UV-I 0 W/m 11,7 C 11,9 C 19,3 km/h (3 Bft) 95,74 %
29.09.2016 03:44 14,9 C 81 % 1025,4 hPa 0,0 l/m 11,2 km/h (2 Bft) W-SW 239 0 min 0,000 mm 0,0 UV-I 0 W/m 11,7 C 12,5 C 16,1 km/h (3 Bft) 100,00 %
29.09.2016 03:46 14,9 C 81 % 1025,4 hPa 0,0 l/m 12,8 km/h (3 Bft) SW 222 0 min 0,000 mm 0,0 UV-I 0 W/m 11,7 C 11,8 C 17,7 km/h (3 Bft) 100,00 %
29.09.2016 03:48 14,9 C 81 % 1025,4 hPa 0,0 l/m 10,5 km/h (2 Bft) W-SW 244 0 min 0,000 mm 0,0 UV-I 0 W/m 11,7 C 12,8 C 16,1 km/h (3 Bft) 100,00 %
29.09.2016 03:50 14,9 C 81 % 1025,4 hPa 0,0 l/m 10,1 km/h (2 Bft) SW 221 0 min 0,000 mm 0,0 UV-I 0 W/m 11,7 C 13,0 C 14,5 km/h (3 Bft) 100,00 %
29.09.2016 03:52 14,9 C 81 % 1025,4 hPa 0,0 l/m 11,0 km/h (2 Bft) SW 236 0 min 0,000 mm 0,0 UV-I 0 W/m 11,7 C 12,6 C 19,3 km/h (3 Bft) 100,00 %
29.09.2016 03:54 14,9 C 82 % 1025,4 hPa 0,0 l/m 9,5 km/h (2 Bft) SW 228 0 min 0,000 mm 0,0 UV-I 0 W/m 11,9 C 13,2 C 12,9 km/h (3 Bft) 95,74 %
29.09.2016 03:56 14,9 C 81 % 1025,4 hPa 0,0 l/m 10,7 km/h (2 Bft) SW 227 0 min 0,000 mm 0,0 UV-I 0 W/m 11,7 C 12,7 C 14,5 km/h (3 Bft) 100,00 %
29.09.2016 03:58 14,9 C 82 % 1025,4 hPa 0,0 l/m 11,1 km/h (2 Bft) SW 227 0 min 0,000 mm 0,0 UV-I 0 W/m 11,9 C 12,5 C 14,5 km/h (3 Bft) 100,00 %
29.09.2016 04:00 14,9 C 82 % 1025,4 hPa 0,0 l/m 10,2 km/h (2 Bft) W-SW 240 0 min 0,026 mm 0,0 UV-I 0 W/m 11,9 C 12,9 C 14,5 km/h (3 Bft) 98,00 %
29.09.2016 04:02 14,8 C 82 % 1025,4 hPa 0,0 l/m 8,2 km/h (2 Bft) SW 230 0 min 0,000 mm 0,0 UV-I 0 W/m 11,8 C 13,8 C 11,3 km/h (2 Bft) 95,83 %
29.09.2016 04:04 14,8 C 82 % 1025,4 hPa 0,0 l/m 9,1 km/h (2 Bft) S-SW 211 0 min 0,000 mm 0,0 UV-I 0 W/m 11,8 C 13,3 C 14,5 km/h (3 Bft) 95,74 %
29.09.2016 04:06 14,8 C 82 % 1025,4 hPa 0,0 l/m 8,8 km/h (2 Bft) SW 234 0 min 0,000 mm 0,0 UV-I 0 W/m 11,8 C 13,5 C 14,5 km/h (3 Bft) 100,00 %
29.09.2016 04:08 14,8 C 82 % 1025,4 hPa 0,0 l/m 9,1 km/h (2 Bft) S-SW 199 0 min 0,000 mm 0,0 UV-I 0 W/m 11,8 C 13,3 C 14,5 km/h (3 Bft) 100,00 %
29.09.2016 04:10 14,7 C 82 % 1025,4 hPa 0,0 l/m 8,8 km/h (2 Bft) W-SW 240 0 min 0,000 mm 0,0 UV-I 0 W/m 11,7 C 13,4 C 11,3 km/h (2 Bft) 95,74 %
29.09.2016 04:12 14,7 C 82 % 1025,4 hPa 0,0 l/m 9,3 km/h (2 Bft) W-SW 240 0 min 0,000 mm 0,0 UV-I 0 W/m 11,7 C 13,1 C 14,5 km/h (3 Bft) 100,00 %
29.09.2016 04:14 14,7 C 82 % 1025,4 hPa 0,0 l/m 8,9 km/h (2 Bft) W-SW 238 0 min 0,000 mm 0,0 UV-I 0 W/m 11,7 C 13,3 C 12,9 km/h (3 Bft) 100,00 %
29.09.2016 04:16 14,6 C 83 % 1025,4 hPa 0,0 l/m 8,7 km/h (2 Bft) W-SW 238 0 min 0,000 mm 0,0 UV-I 0 W/m 11,7 C 13,3 C 11,3 km/h (2 Bft) 97,87 %
29.09.2016 04:18 14,6 C 83 % 1025,4 hPa 0,0 l/m 9,1 km/h (2 Bft) SW 219 0 min 0,000 mm 0,0 UV-I 0 W/m 11,7 C 13,1 C 14,5 km/h (3 Bft) 100,00 %
29.09.2016 04:20 14,6 C 83 % 1025,3 hPa 0,0 l/m 9,0 km/h (2 Bft) SW 234 0 min 0,000 mm 0,0 UV-I 0 W/m 11,7 C 13,2 C 11,3 km/h (2 Bft) 100,00 %
29.09.2016 04:22 14,5 C 83 % 1025,3 hPa 0,0 l/m 8,6 km/h (2 Bft) SW 215 0 min 0,000 mm 0,0 UV-I 0 W/m 11,6 C 13,3 C 11,3 km/h (2 Bft) 97,87 %
29.09.2016 04:24 14,4 C 84 % 1025,3 hPa 0,0 l/m 8,9 km/h (2 Bft) SW 226 0 min 0,000 mm 0,0 UV-I 0 W/m 11,7 C 13,0 C 12,9 km/h (3 Bft) 97,87 %
29.09.2016 04:26 14,4 C 84 % 1025,3 hPa 0,0 l/m 8,6 km/h (2 Bft) SW 232 0 min 0,000 mm 0,0 UV-I 0 W/m 11,7 C 13,1 C 12,9 km/h (3 Bft) 100,00 %
29.09.2016 04:28 14,4 C 84 % 1025,3 hPa 0,0 l/m 8,6 km/h (2 Bft) SW 236 0 min 0,000 mm 0,0 UV-I 0 W/m 11,7 C 13,1 C 12,9 km/h (3 Bft) 97,87 %
29.09.2016 04:30 14,4 C 84 % 1025,3 hPa 0,0 l/m 8,3 km/h (2 Bft) SW 227 0 min 0,000 mm 0,0 UV-I 0 W/m 11,7 C 13,3 C 11,3 km/h (2 Bft) 100,00 %
29.09.2016 04:32 14,4 C 84 % 1025,3 hPa 0,0 l/m 7,6 km/h (2 Bft) W-SW 238 0 min 0,000 mm 0,0 UV-I 0 W/m 11,7 C 13,7 C 11,3 km/h (2 Bft) 100,00 %
29.09.2016 04:34 14,4 C 84 % 1025,3 hPa 0,0 l/m 7,8 km/h (2 Bft) SW 227 0 min 0,000 mm 0,0 UV-I 0 W/m 11,7 C 13,6 C 11,3 km/h (2 Bft) 100,00 %
29.09.2016 04:36 14,4 C 84 % 1025,3 hPa 0,0 l/m 8,3 km/h (2 Bft) SW 226 0 min 0,000 mm 0,0 UV-I 0 W/m 11,7 C 13,3 C 11,3 km/h (2 Bft) 97,87 %
29.09.2016 04:38 14,4 C 84 % 1025,3 hPa 0,0 l/m 7,2 km/h (2 Bft) SW 229 0 min 0,000 mm 0,0 UV-I 0 W/m 11,7 C 13,9 C 9,7 km/h (2 Bft) 97,87 %
29.09.2016 04:40 14,3 C 84 % 1025,3 hPa 0,0 l/m 7,7 km/h (2 Bft) SW 229 0 min 0,000 mm 0,0 UV-I 0 W/m 11,6 C 13,5 C 9,7 km/h (2 Bft) 100,00 %
29.09.2016 04:42 14,4 C 84 % 1025,4 hPa 0,0 l/m 6,7 km/h (2 Bft) SW 222 0 min 0,000 mm 0,0 UV-I 0 W/m 11,7 C 14,2 C 9,7 km/h (2 Bft) 100,00 %
29.09.2016 04:44 14,3 C 84 % 1025,4 hPa 0,0 l/m 6,3 km/h (2 Bft) SW 223 0 min 0,000 mm 0,0 UV-I 0 W/m 11,6 C 14,3 C 9,7 km/h (2 Bft) 97,37 %
29.09.2016 04:46 14,3 C 84 % 1025,4 hPa 0,0 l/m 7,5 km/h (2 Bft) SW 225 0 min 0,000 mm 0,0 UV-I 0 W/m 11,6 C 13,7 C 9,7 km/h (2 Bft) 100,00 %
29.09.2016 04:48 14,3 C 84 % 1025,4 hPa 0,0 l/m 6,3 km/h (2 Bft) W-SW 242 0 min 0,000 mm 0,0 UV-I 0 W/m 11,6 C 14,3 C 11,3 km/h (2 Bft) 98,00 %
29.09.2016 04:50 14,3 C 84 % 1025,4 hPa 0,0 l/m 5,8 km/h (2 Bft) SW 233 0 min 0,000 mm 0,0 UV-I 0 W/m 11,6 C 14,3 C 8,0 km/h (2 Bft) 97,87 %
29.09.2016 04:52 14,3 C 84 % 1025,3 hPa 0,0 l/m 5,5 km/h (1 Bft) SW 223 0 min 0,000 mm 0,0 UV-I 0 W/m 11,6 C 14,3 C 8,0 km/h (2 Bft) 97,87 %
29.09.2016 04:54 14,3 C 84 % 1025,3 hPa 0,0 l/m 5,4 km/h (1 Bft) SW 219 0 min 0,000 mm 0,0 UV-I 0 W/m 11,6 C 14,3 C 8,0 km/h (2 Bft) 97,92 %
29.09.2016 04:56 14,3 C 84 % 1025,3 hPa 0,0 l/m 6,2 km/h (2 Bft) SW 227 0 min 0,000 mm 0,0 UV-I 0 W/m 11,6 C 14,3 C 9,7 km/h (2 Bft) 95,74 %
29.09.2016 04:58 14,3 C 84 % 1025,3 hPa 0,0 l/m 7,1 km/h (2 Bft) SW 234 0 min 0,000 mm 0,0 UV-I 0 W/m 11,6 C 13,9 C 9,7 km/h (2 Bft) 97,87 %
29.09.2016 05:00 14,2 C 84 % 1025,3 hPa 0,0 l/m 6,5 km/h (2 Bft) W-SW 258 0 min 0,025 mm 0,0 UV-I 0 W/m 11,5 C 14,2 C 8,0 km/h (2 Bft) 98,00 %
29.09.2016 05:02 14,2 C 84 % 1025,2 hPa 0,0 l/m 5,1 km/h (1 Bft) W-SW 249 0 min 0,000 mm 0,0 UV-I 0 W/m 11,5 C 14,2 C 9,7 km/h (2 Bft) 97,87 %
29.09.2016 05:04 14,2 C 84 % 1025,2 hPa 0,0 l/m 6,8 km/h (2 Bft) W-SW 246 0 min 0,000 mm 0,0 UV-I 0 W/m 11,5 C 14,0 C 9,7 km/h (2 Bft) 97,87 %
29.09.2016 05:06 14,2 C 84 % 1025,2 hPa 0,0 l/m 6,2 km/h (2 Bft) SW 236 0 min 0,000 mm 0,0 UV-I 0 W/m 11,5 C 14,2 C 8,0 km/h (2 Bft) 95,74 %
29.09.2016 05:08 14,2 C 84 % 1025,1 hPa 0,0 l/m 4,9 km/h (1 Bft) W-SW 242 0 min 0,000 mm 0,0 UV-I 0 W/m 11,5 C 14,2 C 8,0 km/h (2 Bft) 97,87 %
29.09.2016 05:10 14,2 C 84 % 1025,1 hPa 0,0 l/m 3,8 km/h (1 Bft) W-SW 241 0 min 0,000 mm 0,0 UV-I 0 W/m 11,5 C 14,2 C 8,0 km/h (2 Bft) 97,87 %
29.09.2016 05:12 14,1 C 84 % 1025,1 hPa 0,0 l/m 4,4 km/h (1 Bft) W-SW 245 0 min 0,000 mm 0,0 UV-I 0 W/m 11,4 C 14,1 C 6,4 km/h (2 Bft) 93,62 %
29.09.2016 05:14 14,1 C 84 % 1025,1 hPa 0,0 l/m 5,0 km/h (1 Bft) W-SW 243 0 min 0,000 mm 0,0 UV-I 0 W/m 11,4 C 14,1 C 8,0 km/h (2 Bft) 100,00 %
29.09.2016 05:16 14,1 C 84 % 1025,1 hPa 0,0 l/m 5,1 km/h (1 Bft) W-SW 240 0 min 0,000 mm 0,0 UV-I 0 W/m 11,4 C 14,1 C 8,0 km/h (2 Bft) 95,74 %
29.09.2016 05:18 14,1 C 85 % 1025,1 hPa 0,0 l/m 4,2 km/h (1 Bft) W-SW 248 0 min 0,000 mm 0,0 UV-I 0 W/m 11,6 C 14,1 C 8,0 km/h (2 Bft) 97,87 %
29.09.2016 05:20 14,0 C 85 % 1025,1 hPa 0,0 l/m 4,4 km/h (1 Bft) W 263 0 min 0,000 mm 0,0 UV-I 0 W/m 11,5 C 14,0 C 6,4 km/h (2 Bft) 95,74 %
29.09.2016 05:22 14,0 C 85 % 1025,1 hPa 0,0 l/m 5,4 km/h (1 Bft) W-SW 242 0 min 0,000 mm 0,0 UV-I 0 W/m 11,5 C 14,0 C 9,7 km/h (2 Bft) 94,00 %
29.09.2016 05:24 13,9 C 85 % 1025,1 hPa 0,0 l/m 4,8 km/h (1 Bft) SW 235 0 min 0,000 mm 0,0 UV-I 0 W/m 11,4 C 13,9 C 8,0 km/h (2 Bft) 97,87 %
29.09.2016 05:26 13,9 C 85 % 1025,0 hPa 0,0 l/m 5,9 km/h (2 Bft) S 187 0 min 0,000 mm 0,0 UV-I 0 W/m 11,4 C 13,9 C 8,0 km/h (2 Bft) 100,00 %
29.09.2016 05:28 13,8 C 85 % 1024,9 hPa 0,0 l/m 6,0 km/h (2 Bft) SW 226 0 min 0,000 mm 0,0 UV-I 0 W/m 11,3 C 13,8 C 9,7 km/h (2 Bft) 98,00 %
29.09.2016 05:30 13,8 C 85 % 1025,0 hPa 0,0 l/m 6,6 km/h (2 Bft) SW 230 0 min 0,000 mm 0,0 UV-I 0 W/m 11,3 C 13,7 C 11,3 km/h (2 Bft) 100,00 %
29.09.2016 05:32 13,8 C 85 % 1025,0 hPa 0,0 l/m 7,7 km/h (2 Bft) SW 232 0 min 0,000 mm 0,0 UV-I 0 W/m 11,3 C 13,0 C 14,5 km/h (3 Bft) 100,00 %
29.09.2016 05:34 13,8 C 85 % 1025,0 hPa 0,0 l/m 7,7 km/h (2 Bft) SW 229 0 min 0,000 mm 0,0 UV-I 0 W/m 11,3 C 13,0 C 11,3 km/h (2 Bft) 100,00 %
29.09.2016 05:36 13,8 C 85 % 1025,0 hPa 0,0 l/m 8,5 km/h (2 Bft) SW 216 0 min 0,000 mm 0,0 UV-I 0 W/m 11,3 C 12,6 C 11,3 km/h (2 Bft) 98,00 %
29.09.2016 05:38 13,8 C 85 % 1025,0 hPa 0,0 l/m 7,1 km/h (2 Bft) S-SW 211 0 min 0,000 mm 0,0 UV-I 0 W/m 11,3 C 13,4 C 9,7 km/h (2 Bft) 100,00 %
29.09.2016 05:40 13,8 C 85 % 1025,0 hPa 0,0 l/m 6,5 km/h (2 Bft) W-SW 240 0 min 0,000 mm 0,0 UV-I 0 W/m 11,3 C 13,8 C 9,7 km/h (2 Bft) 100,00 %
29.09.2016 05:42 13,8 C 85 % 1025,0 hPa 0,0 l/m 6,1 km/h (2 Bft) SW 234 0 min 0,000 mm 0,0 UV-I 0 W/m 11,3 C 13,8 C 9,7 km/h (2 Bft) 92,11 %
29.09.2016 05:44 13,8 C 84 % 1024,9 hPa 0,0 l/m 6,4 km/h (2 Bft) SW 223 0 min 0,000 mm 0,0 UV-I 0 W/m 11,1 C 13,8 C 9,7 km/h (2 Bft) 97,87 %
29.09.2016 05:46 13,8 C 84 % 1024,9 hPa 0,0 l/m 6,7 km/h (2 Bft) SW 231 0 min 0,000 mm 0,0 UV-I 0 W/m 11,1 C 13,6 C 9,7 km/h (2 Bft) 98,00 %
29.09.2016 05:48 13,7 C 85 % 1024,9 hPa 0,0 l/m 6,0 km/h (2 Bft) SW 235 0 min 0,000 mm 0,0 UV-I 0 W/m 11,2 C 13,7 C 9,7 km/h (2 Bft) 97,87 %
29.09.2016 05:50 13,7 C 85 % 1024,9 hPa 0,0 l/m 6,9 km/h (2 Bft) W-SW 240 0 min 0,000 mm 0,0 UV-I 0 W/m 11,2 C 13,4 C 9,7 km/h (2 Bft) 97,87 %
29.09.2016 05:52 13,6 C 85 % 1025,0 hPa 0,0 l/m 6,8 km/h (2 Bft) SW 236 0 min 0,000 mm 0,0 UV-I 0 W/m 11,1 C 13,4 C 9,7 km/h (2 Bft) 100,00 %
29.09.2016 05:54 13,6 C 85 % 1024,9 hPa 0,0 l/m 6,9 km/h (2 Bft) SW 233 0 min 0,000 mm 0,0 UV-I 0 W/m 11,1 C 13,3 C 9,7 km/h (2 Bft) 97,87 %
29.09.2016 05:56 13,6 C 85 % 1024,9 hPa 0,0 l/m 6,7 km/h (2 Bft) SW 216 0 min 0,000 mm 0,0 UV-I 0 W/m 11,1 C 13,4 C 9,7 km/h (2 Bft) 100,00 %
29.09.2016 05:58 13,6 C 85 % 1024,9 hPa 0,0 l/m 6,0 km/h (2 Bft) S-SW 212 0 min 0,000 mm 0,0 UV-I 0 W/m 11,1 C 13,6 C 8,0 km/h (2 Bft) 100,00 %
29.09.2016 06:00 13,5 C 85 % 1024,9 hPa 0,0 l/m 4,8 km/h (1 Bft) SW 236 0 min 0,025 mm 0,0 UV-I 0 W/m 11,0 C 13,5 C 8,0 km/h (2 Bft) 100,00 %
29.09.2016 06:02 13,5 C 85 % 1024,9 hPa 0,0 l/m 5,6 km/h (1 Bft) SW 215 0 min 0,000 mm 0,0 UV-I 0 W/m 11,0 C 13,5 C 8,0 km/h (2 Bft) 100,00 %
29.09.2016 06:04 13,6 C 85 % 1024,9 hPa 0,0 l/m 4,9 km/h (1 Bft) SW 214 0 min 0,000 mm 0,0 UV-I 0 W/m 11,1 C 13,6 C 8,0 km/h (2 Bft) 100,00 %
29.09.2016 06:06 13,6 C 85 % 1025,0 hPa 0,0 l/m 5,8 km/h (2 Bft) S 191 0 min 0,000 mm 0,0 UV-I 0 W/m 11,1 C 13,6 C 8,0 km/h (2 Bft) 100,00 %
29.09.2016 06:08 13,6 C 85 % 1025,0 hPa 0,0 l/m 5,7 km/h (1 Bft) S-SW 211 0 min 0,000 mm 0,0 UV-I 0 W/m 11,1 C 13,6 C 9,7 km/h (2 Bft) 100,00 %
29.09.2016 06:10 13,5 C 85 % 1025,0 hPa 0,0 l/m 5,3 km/h (1 Bft) S 185 0 min 0,000 mm 0,0 UV-I 0 W/m 11,0 C 13,5 C 8,0 km/h (2 Bft) 97,87 %
29.09.2016 06:12 13,4 C 85 % 1024,9 hPa 0,0 l/m 4,9 km/h (1 Bft) S-SW 200 0 min 0,000 mm 0,0 UV-I 0 W/m 10,9 C 13,4 C 6,4 km/h (2 Bft) 100,00 %
29.09.2016 06:14 13,4 C 85 % 1024,8 hPa 0,0 l/m 5,3 km/h (1 Bft) S-SW 201 0 min 0,000 mm 0,0 UV-I 0 W/m 10,9 C 13,4 C 6,4 km/h (2 Bft) 100,00 %
29.09.2016 06:16 13,3 C 86 % 1024,8 hPa 0,0 l/m 5,5 km/h (1 Bft) S-SW 194 0 min 0,000 mm 0,0 UV-I 0 W/m 11,0 C 13,3 C 8,0 km/h (2 Bft) 100,00 %
29.09.2016 06:18 13,3 C 86 % 1024,8 hPa 0,0 l/m 4,4 km/h (1 Bft) S-SW 199 0 min 0,000 mm 0,0 UV-I 0 W/m 11,0 C 13,3 C 6,4 km/h (2 Bft) 95,74 %
29.09.2016 06:20 13,2 C 86 % 1024,8 hPa 0,0 l/m 5,8 km/h (2 Bft) S-SW 209 0 min 0,000 mm 0,0 UV-I 0 W/m 10,9 C 13,2 C 8,0 km/h (2 Bft) 100,00 %
29.09.2016 06:22 13,2 C 86 % 1024,8 hPa 0,0 l/m 5,3 km/h (1 Bft) S-SW 200 0 min 0,000 mm 0,0 UV-I 0 W/m 10,9 C 13,2 C 8,0 km/h (2 Bft) 100,00 %
29.09.2016 06:24 13,2 C 86 % 1024,8 hPa 0,0 l/m 5,1 km/h (1 Bft) S-SW 207 0 min 0,000 mm 0,0 UV-I 0 W/m 10,9 C 13,2 C 6,4 km/h (2 Bft) 100,00 %
29.09.2016 06:26 13,1 C 86 % 1024,8 hPa 0,0 l/m 6,4 km/h (2 Bft) S-SW 208 0 min 0,000 mm 0,0 UV-I 0 W/m 10,8 C 13,1 C 9,7 km/h (2 Bft) 98,11 %
29.09.2016 06:28 13,1 C 86 % 1024,8 hPa 0,0 l/m 5,5 km/h (1 Bft) S-SW 212 0 min 0,000 mm 0,0 UV-I 0 W/m 10,8 C 13,1 C 8,0 km/h (2 Bft) 97,14 %
29.09.2016 06:30 13,1 C 87 % 1024,8 hPa 0,0 l/m 4,6 km/h (1 Bft) SW 229 0 min 0,000 mm 0,0 UV-I 0 W/m 11,0 C 13,1 C 8,0 km/h (2 Bft) 100,00 %
29.09.2016 06:32 13,1 C 87 % 1024,7 hPa 0,0 l/m 4,1 km/h (1 Bft) SW 227 0 min 0,000 mm 0,0 UV-I 0 W/m 11,0 C 13,1 C 4,8 km/h (1 Bft) 100,00 %
29.09.2016 06:34 13,1 C 87 % 1024,7 hPa 0,0 l/m 4,3 km/h (1 Bft) SW 225 0 min 0,000 mm 0,0 UV-I 0 W/m 11,0 C 13,1 C 4,8 km/h (1 Bft) 100,00 %
29.09.2016 06:36 13,1 C 87 % 1024,7 hPa 0,0 l/m 4,0 km/h (1 Bft) S-SW 213 0 min 0,000 mm 0,0 UV-I 0 W/m 11,0 C 13,1 C 4,8 km/h (1 Bft) 97,87 %
29.09.2016 06:38 13,1 C 87 % 1024,7 hPa 0,0 l/m 3,7 km/h (1 Bft) S-SW 200 0 min 0,000 mm 0,0 UV-I 0 W/m 11,0 C 13,1 C 4,8 km/h (1 Bft) 97,87 %
29.09.2016 06:40 13,0 C 87 % 1024,7 hPa 0,0 l/m 3,9 km/h (1 Bft) S-SW 200 0 min 0,000 mm 0,0 UV-I 0 W/m 10,9 C 13,0 C 4,8 km/h (1 Bft) 100,00 %
29.09.2016 06:42 12,9 C 87 % 1024,7 hPa 0,0 l/m 3,2 km/h (1 Bft) S-SW 200 0 min 0,000 mm 0,0 UV-I 0 W/m 10,8 C 12,9 C 4,8 km/h (1 Bft) 98,00 %
29.09.2016 06:44 12,9 C 87 % 1024,7 hPa 0,0 l/m 4,0 km/h (1 Bft) S-SW 200 0 min 0,000 mm 0,0 UV-I 0 W/m 10,8 C 12,9 C 4,8 km/h (1 Bft) 100,00 %
29.09.2016 06:46 12,9 C 88 % 1024,7 hPa 0,0 l/m 3,7 km/h (1 Bft) S-SW 200 0 min 0,000 mm 0,0 UV-I 0 W/m 11,0 C 12,9 C 4,8 km/h (1 Bft) 97,87 %
29.09.2016 06:48 12,9 C 88 % 1024,7 hPa 0,0 l/m 3,6 km/h (1 Bft) S-SW 200 0 min 0,000 mm 0,0 UV-I 0 W/m 11,0 C 12,9 C 4,8 km/h (1 Bft) 100,00 %
29.09.2016 06:50 12,8 C 88 % 1024,6 hPa 0,0 l/m 3,4 km/h (1 Bft) S-SW 200 0 min 0,000 mm 0,0 UV-I 0 W/m 10,9 C 12,8 C 4,8 km/h (1 Bft) 100,00 %
29.09.2016 06:52 12,8 C 88 % 1024,6 hPa 0,0 l/m 4,1 km/h (1 Bft) SW 217 0 min 0,000 mm 0,0 UV-I 0 W/m 10,9 C 12,8 C 4,8 km/h (1 Bft) 97,87 %
29.09.2016 06:54 12,8 C 88 % 1024,6 hPa 0,0 l/m 3,7 km/h (1 Bft) SW 220 0 min 0,000 mm 0,0 UV-I 0 W/m 10,9 C 12,8 C 4,8 km/h (1 Bft) 100,00 %
29.09.2016 06:56 12,8 C 88 % 1024,6 hPa 0,0 l/m 3,2 km/h (1 Bft) SW 220 0 min 0,000 mm 0,0 UV-I 0 W/m 10,9 C 12,8 C 4,8 km/h (1 Bft) 97,87 %
29.09.2016 06:58 12,8 C 88 % 1024,6 hPa 0,0 l/m 2,7 km/h (1 Bft) SW 220 0 min 0,000 mm 0,0 UV-I 0 W/m 10,9 C 12,8 C 4,8 km/h (1 Bft) 97,87 %
29.09.2016 07:00 12,7 C 88 % 1024,7 hPa 0,0 l/m 3,4 km/h (1 Bft) SW 220 0 min 0,000 mm 0,0 UV-I 0 W/m 10,8 C 12,7 C 4,8 km/h (1 Bft) 95,74 %
29.09.2016 07:02 12,6 C 89 % 1024,6 hPa 0,0 l/m 4,2 km/h (1 Bft) SW 220 0 min 0,000 mm 0,0 UV-I 0 W/m 10,8 C 12,6 C 4,8 km/h (1 Bft) 97,37 %
29.09.2016 07:04 12,6 C 89 % 1024,6 hPa 0,0 l/m 3,9 km/h (1 Bft) SW 219 0 min 0,000 mm 0,0 UV-I 1 W/m 10,8 C 12,6 C 6,4 km/h (2 Bft) 98,00 %
29.09.2016 07:06 12,4 C 89 % 1024,6 hPa 0,0 l/m 3,7 km/h (1 Bft) S-SW 207 0 min 0,000 mm 0,0 UV-I 5 W/m 10,6 C 12,4 C 4,8 km/h (1 Bft) 95,74 %
29.09.2016 07:08 12,4 C 89 % 1024,6 hPa 0,0 l/m 2,2 km/h (1 Bft) S 182 0 min 0,000 mm 0,0 UV-I 7 W/m 10,6 C 12,4 C 4,8 km/h (1 Bft) 97,87 %
29.09.2016 07:10 12,4 C 90 % 1024,6 hPa 0,0 l/m 1,9 km/h (1 Bft) S 182 0 min 0,000 mm 0,0 UV-I 9 W/m 10,8 C 12,4 C 4,8 km/h (1 Bft) 98,11 %
29.09.2016 07:12 12,3 C 90 % 1024,6 hPa 0,0 l/m 2,5 km/h (1 Bft) S 182 2 min 0,000 mm 0,0 UV-I 11 W/m 10,7 C 12,3 C 4,8 km/h (1 Bft) 97,67 %
29.09.2016 07:14 12,3 C 90 % 1024,6 hPa 0,0 l/m 2,6 km/h (1 Bft) S 182 2 min 0,000 mm 0,0 UV-I 14 W/m 10,7 C 12,3 C 3,2 km/h (1 Bft) 93,62 %
29.09.2016 07:16 12,2 C 90 % 1024,6 hPa 0,0 l/m 1,8 km/h (1 Bft) S 182 0 min 0,000 mm 0,0 UV-I 17 W/m 10,6 C 12,2 C 3,2 km/h (1 Bft) 97,56 %
29.09.2016 07:18 12,2 C 91 % 1024,6 hPa 0,0 l/m 2,8 km/h (1 Bft) S 182 0 min 0,000 mm 0,0 UV-I 20 W/m 10,8 C 12,2 C 4,8 km/h (1 Bft) 97,87 %
29.09.2016 07:20 12,2 C 91 % 1024,6 hPa 0,0 l/m 3,2 km/h (1 Bft) S 182 0 min 0,000 mm 0,0 UV-I 23 W/m 10,8 C 12,2 C 4,8 km/h (1 Bft) 97,87 %
29.09.2016 07:22 12,3 C 91 % 1024,6 hPa 0,0 l/m 2,7 km/h (1 Bft) S 182 0 min 0,000 mm 0,0 UV-I 25 W/m 10,9 C 12,3 C 4,8 km/h (1 Bft) 97,87 %
29.09.2016 07:24 12,3 C 91 % 1024,6 hPa 0,0 l/m 2,0 km/h (1 Bft) S 182 0 min 0,000 mm 0,0 UV-I 27 W/m 10,9 C 12,3 C 3,2 km/h (1 Bft) 97,87 %
29.09.2016 07:26 12,3 C 91 % 1024,6 hPa 0,0 l/m 2,6 km/h (1 Bft) S 182 0 min 0,000 mm 0,0 UV-I 31 W/m 10,9 C 12,3 C 4,8 km/h (1 Bft) 97,87 %
29.09.2016 07:28 12,3 C 91 % 1024,6 hPa 0,0 l/m 2,4 km/h (1 Bft) S 182 0 min 0,000 mm 0,0 UV-I 33 W/m 10,9 C 12,3 C 4,8 km/h (1 Bft) 95,83 %
29.09.2016 07:30 12,4 C 91 % 1024,6 hPa 0,0 l/m 2,9 km/h (1 Bft) S 182 0 min 0,000 mm 0,0 UV-I 34 W/m 11,0 C 12,4 C 4,8 km/h (1 Bft) 97,87 %
29.09.2016 07:32 12,4 C 91 % 1024,6 hPa 0,0 l/m 3,0 km/h (1 Bft) S 182 0 min 0,000 mm 0,0 UV-I 37 W/m 11,0 C 12,4 C 4,8 km/h (1 Bft) 100,00 %
29.09.2016 07:34 12,4 C 90 % 1024,5 hPa 0,0 l/m 2,7 km/h (1 Bft) S 184 0 min 0,000 mm 0,0 UV-I 38 W/m 10,8 C 12,4 C 4,8 km/h (1 Bft) 100,00 %
29.09.2016 07:36 12,4 C 90 % 1024,6 hPa 0,0 l/m 2,4 km/h (1 Bft) S 184 0 min 0,000 mm 0,0 UV-I 39 W/m 10,8 C 12,4 C 4,8 km/h (1 Bft) 97,87 %
29.09.2016 07:38 12,4 C 90 % 1024,5 hPa 0,0 l/m 0,9 km/h (0 Bft) S 184 0 min 0,000 mm 0,0 UV-I 41 W/m 10,8 C 12,4 C 3,2 km/h (1 Bft) 100,00 %
29.09.2016 07:40 12,3 C 90 % 1024,5 hPa 0,0 l/m 0,6 km/h (0 Bft) S 184 0 min 0,000 mm 0,0 UV-I 44 W/m 10,7 C 12,3 C 3,2 km/h (1 Bft) 97,87 %
29.09.2016 07:42 12,3 C 91 % 1024,6 hPa 0,0 l/m 1,0 km/h (0 Bft) S 184 0 min 0,000 mm 0,0 UV-I 49 W/m 10,9 C 12,3 C 1,6 km/h (1 Bft) 100,00 %
29.09.2016 07:44 12,3 C 91 % 1024,7 hPa 0,0 l/m 0,1 km/h (0 Bft) S 184 0 min 0,000 mm 0,0 UV-I 60 W/m 10,9 C 12,3 C 1,6 km/h (1 Bft) 100,00 %
29.09.2016 07:46 12,3 C 91 % 1024,7 hPa 0,0 l/m 0,0 km/h (0 Bft) S 184 2 min 0,000 mm 0,0 UV-I 72 W/m 10,9 C 12,3 C 0,0 km/h (0 Bft) 100,00 %
29.09.2016 07:48 12,4 C 91 % 1024,7 hPa 0,0 l/m 0,0 km/h (0 Bft) S 184 2 min 0,000 mm 0,0 UV-I 79 W/m 11,0 C 12,4 C 0,0 km/h (0 Bft) 100,00 %
29.09.2016 07:50 12,5 C 91 % 1024,7 hPa 0,0 l/m 0,0 km/h (0 Bft) S 184 2 min 0,000 mm 0,0 UV-I 88 W/m 11,1 C 12,5 C 0,0 km/h (0 Bft) 100,00 %
29.09.2016 07:52 12,6 C 91 % 1024,6 hPa 0,0 l/m 0,0 km/h (0 Bft) S 184 2 min 0,000 mm 0,0 UV-I 99 W/m 11,2 C 12,6 C 0,0 km/h (0 Bft) 100,00 %
29.09.2016 07:54 12,7 C 90 % 1024,6 hPa 0,0 l/m 0,0 km/h (0 Bft) S 184 2 min 0,000 mm 0,0 UV-I 95 W/m 11,1 C 12,7 C 0,0 km/h (0 Bft) 97,37 %
29.09.2016 07:56 12,8 C 90 % 1024,6 hPa 0,0 l/m 0,2 km/h (0 Bft) S 184 2 min 0,000 mm 0,0 UV-I 88 W/m 11,2 C 12,8 C 1,6 km/h (1 Bft) 100,00 %
29.09.2016 07:58 12,8 C 90 % 1024,6 hPa 0,0 l/m 0,6 km/h (0 Bft) S 184 2 min 0,000 mm 0,0 UV-I 106 W/m 11,2 C 12,8 C 1,6 km/h (1 Bft) 100,00 %
29.09.2016 08:00 12,9 C 89 % 1024,6 hPa 0,0 l/m 1,5 km/h (1 Bft) S 184 2 min 0,026 mm 0,0 UV-I 107 W/m 11,1 C 12,9 C 3,2 km/h (1 Bft) 97,92 %
29.09.2016 08:02 13,1 C 89 % 1024,6 hPa 0,0 l/m 2,2 km/h (1 Bft) S 184 2 min 0,000 mm 0,0 UV-I 111 W/m 11,3 C 13,1 C 3,2 km/h (1 Bft) 97,87 %
29.09.2016 08:04 13,1 C 89 % 1024,6 hPa 0,0 l/m 2,4 km/h (1 Bft) S 184 2 min 0,000 mm 0,0 UV-I 97 W/m 11,3 C 13,1 C 3,2 km/h (1 Bft) 100,00 %
29.09.2016 08:06 13,2 C 88 % 1024,6 hPa 0,0 l/m 1,2 km/h (1 Bft) S 184 2 min 0,000 mm 0,0 UV-I 121 W/m 11,3 C 13,2 C 3,2 km/h (1 Bft) 97,87 %
29.09.2016 08:08 13,2 C 89 % 1024,6 hPa 0,0 l/m 1,4 km/h (1 Bft) S 184 2 min 0,000 mm 0,0 UV-I 124 W/m 11,4 C 13,2 C 3,2 km/h (1 Bft) 100,00 %
29.09.2016 08:10 13,3 C 88 % 1024,5 hPa 0,0 l/m 2,0 km/h (1 Bft) S 184 2 min 0,000 mm 0,0 UV-I 137 W/m 11,4 C 13,3 C 3,2 km/h (1 Bft) 100,00 %
29.09.2016 08:12 13,4 C 88 % 1024,5 hPa 0,0 l/m 0,0 km/h (0 Bft) S 184 2 min 0,000 mm 0,0 UV-I 135 W/m 11,5 C 13,4 C 0,0 km/h (0 Bft) 97,87 %
29.09.2016 08:14 13,5 C 87 % 1024,5 hPa 0,0 l/m 1,0 km/h (0 Bft) S 184 2 min 0,000 mm 0,0 UV-I 138 W/m 11,4 C 13,5 C 3,2 km/h (1 Bft) 100,00 %
29.09.2016 08:16 13,6 C 87 % 1024,5 hPa 0,0 l/m 2,3 km/h (1 Bft) S-SW 199 2 min 0,000 mm 0,0 UV-I 133 W/m 11,5 C 13,6 C 4,8 km/h (1 Bft) 97,87 %
29.09.2016 08:18 13,6 C 87 % 1024,5 hPa 0,0 l/m 2,6 km/h (1 Bft) S-SW 199 0 min 0,000 mm 0,0 UV-I 111 W/m 11,5 C 13,6 C 3,2 km/h (1 Bft) 100,00 %
29.09.2016 08:20 13,7 C 86 % 1024,5 hPa 0,0 l/m 1,5 km/h (1 Bft) S-SW 199 0 min 0,000 mm 0,0 UV-I 114 W/m 11,4 C 13,7 C 3,2 km/h (1 Bft) 100,00 %
29.09.2016 08:22 13,7 C 87 % 1024,5 hPa 0,0 l/m 1,0 km/h (0 Bft) S-SW 199 2 min 0,000 mm 0,0 UV-I 126 W/m 11,6 C 13,7 C 3,2 km/h (1 Bft) 100,00 %
29.09.2016 08:24 13,7 C 86 % 1024,5 hPa 0,0 l/m 1,2 km/h (1 Bft) S-SW 199 2 min 0,000 mm 0,0 UV-I 136 W/m 11,4 C 13,7 C 3,2 km/h (1 Bft) 100,00 %
29.09.2016 08:26 13,7 C 86 % 1024,5 hPa 0,0 l/m 1,9 km/h (1 Bft) S-SW 199 2 min 0,000 mm 0,0 UV-I 168 W/m 11,4 C 13,7 C 3,2 km/h (1 Bft) 100,00 %
29.09.2016 08:28 13,7 C 86 % 1024,5 hPa 0,0 l/m 2,2 km/h (1 Bft) S-SW 199 2 min 0,000 mm 0,0 UV-I 173 W/m 11,4 C 13,7 C 3,2 km/h (1 Bft) 98,00 %
29.09.2016 08:30 13,8 C 86 % 1024,6 hPa 0,0 l/m 2,2 km/h (1 Bft) S-SW 199 2 min 0,000 mm 0,0 UV-I 177 W/m 11,5 C 13,8 C 3,2 km/h (1 Bft) 100,00 %
29.09.2016 08:32 13,9 C 86 % 1024,6 hPa 0,0 l/m 2,2 km/h (1 Bft) S-SW 199 2 min 0,000 mm 0,0 UV-I 190 W/m 11,6 C 13,9 C 3,2 km/h (1 Bft) 97,87 %
29.09.2016 08:34 14,0 C 86 % 1024,6 hPa 0,0 l/m 2,6 km/h (1 Bft) S-SW 199 2 min 0,000 mm 0,0 UV-I 192 W/m 11,7 C 14,0 C 3,2 km/h (1 Bft) 100,00 %
29.09.2016 08:36 14,1 C 86 % 1024,6 hPa 0,0 l/m 2,1 km/h (1 Bft) S-SW 199 2 min 0,000 mm 0,0 UV-I 198 W/m 11,8 C 14,1 C 4,8 km/h (1 Bft) 97,87 %
29.09.2016 08:38 14,2 C 85 % 1024,6 hPa 0,0 l/m 2,7 km/h (1 Bft) S-SW 200 2 min 0,000 mm 0,0 UV-I 203 W/m 11,7 C 14,2 C 4,8 km/h (1 Bft) 100,00 %
29.09.2016 08:40 14,3 C 86 % 1024,6 hPa 0,0 l/m 2,1 km/h (1 Bft) S-SW 200 2 min 0,000 mm 0,0 UV-I 160 W/m 12,0 C 14,3 C 3,2 km/h (1 Bft) 95,74 %
29.09.2016 08:42 14,4 C 85 % 1024,6 hPa 0,0 l/m 3,1 km/h (1 Bft) S-SW 200 2 min 0,000 mm 0,0 UV-I 192 W/m 11,9 C 14,4 C 4,8 km/h (1 Bft) 100,00 %
29.09.2016 08:44 14,5 C 84 % 1024,6 hPa 0,0 l/m 2,5 km/h (1 Bft) S-SW 200 2 min 0,000 mm 0,4 UV-I 222 W/m 11,8 C 14,5 C 3,2 km/h (1 Bft) 97,87 %
29.09.2016 08:46 14,6 C 84 % 1024,5 hPa 0,0 l/m 2,2 km/h (1 Bft) S-SW 200 2 min 0,000 mm 0,5 UV-I 218 W/m 11,9 C 14,6 C 3,2 km/h (1 Bft) 97,92 %
29.09.2016 08:48 14,7 C 84 % 1024,5 hPa 0,0 l/m 1,9 km/h (1 Bft) SW 221 2 min 0,000 mm 0,5 UV-I 159 W/m 12,0 C 14,7 C 4,8 km/h (1 Bft) 97,87 %
29.09.2016 08:50 14,7 C 84 % 1024,4 hPa 0,0 l/m 2,6 km/h (1 Bft) SW 232 2 min 0,000 mm 0,5 UV-I 216 W/m 12,0 C 14,7 C 4,8 km/h (1 Bft) 100,00 %
29.09.2016 08:52 14,8 C 85 % 1024,5 hPa 0,0 l/m 0,8 km/h (0 Bft) SW 232 2 min 0,000 mm 0,5 UV-I 239 W/m 12,3 C 14,8 C 3,2 km/h (1 Bft) 100,00 %
29.09.2016 08:54 14,9 C 84 % 1024,4 hPa 0,0 l/m 2,1 km/h (1 Bft) SW 232 2 min 0,000 mm 0,6 UV-I 250 W/m 12,2 C 14,9 C 3,2 km/h (1 Bft) 100,00 %
29.09.2016 08:56 15,1 C 84 % 1024,4 hPa 0,0 l/m 1,2 km/h (1 Bft) SW 232 2 min 0,000 mm 0,6 UV-I 254 W/m 12,4 C 15,1 C 3,2 km/h (1 Bft) 98,00 %
29.09.2016 08:58 15,2 C 84 % 1024,4 hPa 0,0 l/m 1,5 km/h (1 Bft) SW 232 2 min 0,000 mm 0,6 UV-I 262 W/m 12,5 C 15,2 C 3,2 km/h (1 Bft) 95,74 %
29.09.2016 09:00 15,2 C 83 % 1024,4 hPa 0,0 l/m 4,9 km/h (1 Bft) W-SW 241 2 min 0,101 mm 0,6 UV-I 269 W/m 12,3 C 15,2 C 8,0 km/h (2 Bft) 97,87 %
29.09.2016 09:05 15,4 C 82 % 1024,4 hPa 0,0 l/m 3,2 km/h (1 Bft) SW 225 5 min 0,000 mm 0,7 UV-I 284 W/m 12,3 C 15,4 C 8,0 km/h (2 Bft) 100,00 %
29.09.2016 09:10 15,7 C 82 % 1024,4 hPa 0,0 l/m 4,8 km/h (1 Bft) S 180 5 min 0,000 mm 0,7 UV-I 288 W/m 12,6 C 15,7 C 6,4 km/h (2 Bft) 100,00 %
29.09.2016 09:15 15,9 C 81 % 1024,3 hPa 0,0 l/m 4,8 km/h (1 Bft) SW 225 5 min 0,000 mm 0,8 UV-I 314 W/m 12,6 C 15,9 C 8,0 km/h (2 Bft) 98,25 %
29.09.2016 09:20 16,1 C 80 % 1024,3 hPa 0,0 l/m 3,2 km/h (1 Bft) SW 225 5 min 0,000 mm 0,8 UV-I 304 W/m 12,6 C 16,1 C 6,4 km/h (2 Bft) 100,00 %
29.09.2016 09:25 16,2 C 79 % 1024,3 hPa 0,0 l/m 6,4 km/h (2 Bft) S-SW 202 5 min 0,000 mm 0,9 UV-I 254 W/m 12,6 C 16,2 C 11,3 km/h (2 Bft) 100,00 %
29.09.2016 09:30 16,2 C 80 % 1024,4 hPa 0,0 l/m 4,8 km/h (1 Bft) W-SW 247 5 min 0,000 mm 1,0 UV-I 302 W/m 12,7 C 16,2 C 9,7 km/h (2 Bft) 96,49 %
29.09.2016 09:35 16,3 C 79 % 1024,3 hPa 0,0 l/m 4,8 km/h (1 Bft) W-SW 247 5 min 0,000 mm 1,0 UV-I 326 W/m 12,6 C 16,3 C 9,7 km/h (2 Bft) 95,61 %
29.09.2016 09:40 16,5 C 78 % 1024,3 hPa 0,0 l/m 4,8 km/h (1 Bft) SW 225 5 min 0,000 mm 1,1 UV-I 326 W/m 12,6 C 16,5 C 8,0 km/h (2 Bft) 98,25 %
29.09.2016 09:45 16,7 C 77 % 1024,3 hPa 0,0 l/m 4,8 km/h (1 Bft) S-SW 202 5 min 0,000 mm 1,2 UV-I 324 W/m 12,6 C 16,7 C 9,7 km/h (2 Bft) 95,61 %
29.09.2016 09:50 16,8 C 77 % 1024,2 hPa 0,0 l/m 4,8 km/h (1 Bft) SW 225 5 min 0,000 mm 1,3 UV-I 361 W/m 12,7 C 16,8 C 8,0 km/h (2 Bft) 96,49 %
29.09.2016 09:55 17,0 C 76 % 1024,3 hPa 0,0 l/m 4,8 km/h (1 Bft) S 180 5 min 0,000 mm 1,3 UV-I 355 W/m 12,7 C 17,0 C 12,9 km/h (3 Bft) 95,61 %
29.09.2016 10:00 17,2 C 76 % 1024,3 hPa 0,0 l/m 3,2 km/h (1 Bft) S-SW 202 5 min 0,178 mm 1,4 UV-I 394 W/m 12,9 C 17,2 C 6,4 km/h (2 Bft) 100,00 %
29.09.2016 10:05 17,2 C 74 % 1024,3 hPa 0,0 l/m 3,2 km/h (1 Bft) SW 225 5 min 0,000 mm 1,5 UV-I 398 W/m 12,5 C 17,2 C 8,0 km/h (2 Bft) 99,12 %
29.09.2016 10:10 17,4 C 75 % 1024,2 hPa 0,0 l/m 3,2 km/h (1 Bft) W-SW 247 5 min 0,000 mm 1,6 UV-I 415 W/m 12,9 C 17,4 C 6,4 km/h (2 Bft) 100,00 %
29.09.2016 10:15 17,7 C 73 % 1024,2 hPa 0,0 l/m 3,2 km/h (1 Bft) S-SW 202 5 min 0,000 mm 1,7 UV-I 427 W/m 12,8 C 17,7 C 6,4 km/h (2 Bft) 100,00 %
29.09.2016 10:20 17,8 C 73 % 1024,1 hPa 0,0 l/m 3,2 km/h (1 Bft) S-SW 202 5 min 0,000 mm 1,8 UV-I 437 W/m 12,9 C 17,8 C 8,0 km/h (2 Bft) 100,00 %
29.09.2016 10:25 18,1 C 71 % 1024,0 hPa 0,0 l/m 4,8 km/h (1 Bft) S-SW 202 5 min 0,000 mm 1,9 UV-I 449 W/m 12,8 C 18,1 C 8,0 km/h (2 Bft) 100,00 %
29.09.2016 10:30 18,3 C 70 % 1024,0 hPa 0,0 l/m 4,8 km/h (1 Bft) W-SW 247 5 min 0,000 mm 2,0 UV-I 461 W/m 12,7 C 18,3 C 8,0 km/h (2 Bft) 99,12 %
29.09.2016 10:35 18,4 C 69 % 1023,9 hPa 0,0 l/m 4,8 km/h (1 Bft) W-SW 247 5 min 0,000 mm 2,0 UV-I 472 W/m 12,6 C 18,4 C 9,7 km/h (2 Bft) 100,00 %
29.09.2016 10:40 18,5 C 68 % 1023,9 hPa 0,0 l/m 4,8 km/h (1 Bft) W 270 5 min 0,000 mm 2,1 UV-I 477 W/m 12,5 C 18,5 C 11,3 km/h (2 Bft) 99,12 %
29.09.2016 10:45 18,5 C 68 % 1023,8 hPa 0,0 l/m 3,2 km/h (1 Bft) W-SW 247 5 min 0,000 mm 2,2 UV-I 485 W/m 12,5 C 18,5 C 8,0 km/h (2 Bft) 99,12 %
29.09.2016 10:50 18,6 C 67 % 1023,7 hPa 0,0 l/m 4,8 km/h (1 Bft) W-SW 247 5 min 0,000 mm 2,3 UV-I 498 W/m 12,3 C 18,6 C 11,3 km/h (2 Bft) 100,00 %
29.09.2016 10:55 18,8 C 68 % 1023,7 hPa 0,0 l/m 4,8 km/h (1 Bft) W 270 5 min 0,000 mm 2,3 UV-I 510 W/m 12,8 C 18,8 C 6,4 km/h (2 Bft) 99,12 %
29.09.2016 11:00 19,1 C 66 % 1023,7 hPa 0,0 l/m 4,8 km/h (1 Bft) W-SW 247 5 min 0,279 mm 2,4 UV-I 517 W/m 12,6 C 19,1 C 9,7 km/h (2 Bft) 97,37 %
29.09.2016 11:05 19,1 C 67 % 1023,6 hPa 0,0 l/m 3,2 km/h (1 Bft) W 270 5 min 0,000 mm 2,5 UV-I 524 W/m 12,8 C 19,1 C 9,7 km/h (2 Bft) 96,49 %
29.09.2016 11:10 19,4 C 69 % 1023,5 hPa 0,0 l/m 1,6 km/h (1 Bft) S 180 5 min 0,000 mm 2,6 UV-I 536 W/m 13,6 C 19,4 C 6,4 km/h (2 Bft) 97,37 %
29.09.2016 11:15 19,6 C 68 % 1023,4 hPa 0,0 l/m 3,2 km/h (1 Bft) SW 225 5 min 0,000 mm 2,7 UV-I 545 W/m 13,5 C 19,6 C 6,4 km/h (2 Bft) 96,49 %
29.09.2016 11:20 19,7 C 65 % 1023,4 hPa 0,0 l/m 4,8 km/h (1 Bft) S-SW 202 5 min 0,000 mm 2,7 UV-I 551 W/m 12,9 C 19,7 C 11,3 km/h (2 Bft) 96,49 %
29.09.2016 11:25 19,8 C 64 % 1023,2 hPa 0,0 l/m 3,2 km/h (1 Bft) W-SW 247 5 min 0,000 mm 2,8 UV-I 555 W/m 12,8 C 19,8 C 6,4 km/h (2 Bft) 98,25 %
29.09.2016 11:30 19,9 C 62 % 1023,2 hPa 0,0 l/m 4,8 km/h (1 Bft) W-SW 247 5 min 0,000 mm 2,9 UV-I 562 W/m 12,4 C 19,9 C 9,7 km/h (2 Bft) 98,25 %
29.09.2016 11:35 20,3 C 61 % 1023,0 hPa 0,0 l/m 6,4 km/h (2 Bft) S-SW 202 5 min 0,000 mm 2,9 UV-I 568 W/m 12,5 C 20,3 C 9,7 km/h (2 Bft) 97,37 %
29.09.2016 11:40 20,3 C 62 % 1022,9 hPa 0,0 l/m 4,8 km/h (1 Bft) W-SW 247 5 min 0,000 mm 2,8 UV-I 573 W/m 12,8 C 20,3 C 8,0 km/h (2 Bft) 97,37 %
29.09.2016 11:46 20,4 C 61 % 1022,8 hPa 0,0 l/m 5,8 km/h (2 Bft) S 179 6 min 0,001 mm 3,1 UV-I 580 W/m 12,6 C 20,4 C 11,3 km/h (2 Bft) 100,00 %
29.09.2016 11:48 20,6 C 62 % 1022,8 hPa 0,0 l/m 5,4 km/h (1 Bft) W-SW 244 2 min 0,000 mm 3,1 UV-I 583 W/m 13,1 C 20,6 C 11,3 km/h (2 Bft) 97,44 %
29.09.2016 11:50 20,6 C 59 % 1022,7 hPa 0,0 l/m 4,2 km/h (1 Bft) W-SW 237 2 min 0,000 mm 3,1 UV-I 582 W/m 12,3 C 20,6 C 8,0 km/h (2 Bft) 100,00 %
29.09.2016 11:52 20,6 C 61 % 1022,7 hPa 0,0 l/m 7,1 km/h (2 Bft) S 188 2 min 0,000 mm 3,1 UV-I 585 W/m 12,8 C 20,3 C 11,3 km/h (2 Bft) 100,00 %
29.09.2016 11:54 20,6 C 61 % 1022,7 hPa 0,0 l/m 7,4 km/h (2 Bft) SW 215 2 min 0,000 mm 3,1 UV-I 585 W/m 12,8 C 20,2 C 11,3 km/h (2 Bft) 100,00 %
29.09.2016 11:56 20,8 C 61 % 1022,6 hPa 0,0 l/m 5,4 km/h (1 Bft) SW 222 2 min 0,000 mm 2,8 UV-I 589 W/m 13,0 C 20,8 C 11,3 km/h (2 Bft) 100,00 %
29.09.2016 11:58 20,8 C 58 % 1022,6 hPa 0,0 l/m 5,7 km/h (1 Bft) W-SW 242 2 min 0,000 mm 3,2 UV-I 589 W/m 12,2 C 20,8 C 9,7 km/h (2 Bft) 98,00 %
29.09.2016 12:00 20,7 C 60 % 1022,6 hPa 0,0 l/m 2,9 km/h (1 Bft) W-NW 282 2 min 0,355 mm 3,2 UV-I 590 W/m 12,7 C 20,7 C 4,8 km/h (1 Bft) 100,00 %
29.09.2016 12:02 20,7 C 60 % 1022,5 hPa 0,0 l/m 4,7 km/h (1 Bft) W 279 2 min 0,000 mm 3,2 UV-I 592 W/m 12,7 C 20,7 C 6,4 km/h (2 Bft) 100,00 %
29.09.2016 12:04 20,8 C 59 % 1022,5 hPa 0,0 l/m 3,8 km/h (1 Bft) SW 231 2 min 0,000 mm 3,2 UV-I 593 W/m 12,5 C 20,8 C 4,8 km/h (1 Bft) 98,21 %
29.09.2016 12:06 21,0 C 59 % 1022,5 hPa 0,0 l/m 4,2 km/h (1 Bft) W-NW 283 2 min 0,000 mm 3,2 UV-I 595 W/m 12,7 C 21,0 C 6,4 km/h (2 Bft) 100,00 %
29.09.2016 12:08 20,9 C 58 % 1022,5 hPa 0,0 l/m 4,5 km/h (1 Bft) W-NW 294 2 min 0,000 mm 3,3 UV-I 599 W/m 12,3 C 20,9 C 11,3 km/h (2 Bft) 100,00 %
29.09.2016 12:10 21,0 C 60 % 1022,4 hPa 0,0 l/m 3,5 km/h (1 Bft) SW 234 2 min 0,000 mm 3,3 UV-I 600 W/m 12,9 C 21,0 C 6,4 km/h (2 Bft) 100,00 %
29.09.2016 12:12 21,2 C 60 % 1022,3 hPa 0,0 l/m 2,4 km/h (1 Bft) SW 217 2 min 0,000 mm 3,3 UV-I 605 W/m 13,1 C 21,2 C 6,4 km/h (2 Bft) 100,00 %
29.09.2016 12:14 21,3 C 60 % 1022,2 hPa 0,0 l/m 2,5 km/h (1 Bft) SW 217 2 min 0,000 mm 3,3 UV-I 603 W/m 13,2 C 21,3 C 4,8 km/h (1 Bft) 100,00 %
29.09.2016 12:16 21,2 C 58 % 1022,2 hPa 0,0 l/m 5,0 km/h (1 Bft) W 270 2 min 0,000 mm 3,3 UV-I 601 W/m 12,6 C 21,2 C 11,3 km/h (2 Bft) 100,00 %
29.09.2016 12:18 21,2 C 59 % 1022,2 hPa 0,0 l/m 6,3 km/h (2 Bft) W-SW 247 2 min 0,000 mm 3,3 UV-I 604 W/m 12,9 C 21,2 C 11,3 km/h (2 Bft) 97,96 %
29.09.2016 12:20 21,3 C 59 % 1022,2 hPa 0,0 l/m 2,8 km/h (1 Bft) S 181 2 min 0,000 mm 3,3 UV-I 603 W/m 13,0 C 21,3 C 6,4 km/h (2 Bft) 100,00 %
29.09.2016 12:22 21,3 C 59 % 1022,2 hPa 0,0 l/m 5,2 km/h (1 Bft) S-SW 211 2 min 0,000 mm 3,3 UV-I 604 W/m 13,0 C 21,3 C 8,0 km/h (2 Bft) 100,00 %
29.09.2016 12:24 21,3 C 58 % 1022,2 hPa 0,0 l/m 1,7 km/h (1 Bft) S-SW 208 2 min 0,000 mm 3,3 UV-I 607 W/m 12,7 C 21,3 C 4,8 km/h (1 Bft) 100,00 %
29.09.2016 12:26 21,3 C 59 % 1022,2 hPa 0,0 l/m 2,1 km/h (1 Bft) N-NO 25 2 min 0,000 mm 3,3 UV-I 603 W/m 13,0 C 21,3 C 4,8 km/h (1 Bft) 100,00 %
29.09.2016 12:28 21,3 C 61 % 1022,2 hPa 0,0 l/m 1,9 km/h (1 Bft) W-NW 293 2 min 0,000 mm 3,4 UV-I 606 W/m 13,5 C 21,3 C 6,4 km/h (2 Bft) 97,92 %
29.09.2016 12:30 21,3 C 59 % 1022,1 hPa 0,0 l/m 2,1 km/h (1 Bft) NW 306 2 min 0,000 mm 3,4 UV-I 610 W/m 13,0 C 21,3 C 4,8 km/h (1 Bft) 95,74 %
29.09.2016 12:32 21,3 C 61 % 1022,1 hPa 0,0 l/m 2,7 km/h (1 Bft) W-NW 297 2 min 0,000 mm 3,4 UV-I 610 W/m 13,5 C 21,3 C 11,3 km/h (2 Bft) 97,37 %
29.09.2016 12:34 21,3 C 60 % 1022,0 hPa 0,0 l/m 2,7 km/h (1 Bft) N 5 2 min 0,000 mm 3,4 UV-I 607 W/m 13,2 C 21,3 C 8,0 km/h (2 Bft) 96,23 %
29.09.2016 12:36 21,4 C 59 % 1022,0 hPa 0,0 l/m 2,6 km/h (1 Bft) W-NW 297 2 min 0,000 mm 3,4 UV-I 595 W/m 13,0 C 21,4 C 6,4 km/h (2 Bft) 98,00 %
29.09.2016 12:38 21,4 C 62 % 1021,9 hPa 0,0 l/m 1,7 km/h (1 Bft) NW 320 2 min 0,000 mm 3,4 UV-I 608 W/m 13,8 C 21,4 C 4,8 km/h (1 Bft) 97,37 %
29.09.2016 12:40 21,4 C 62 % 1021,9 hPa 0,0 l/m 1,0 km/h (0 Bft) N-NO 20 2 min 0,000 mm 3,4 UV-I 612 W/m 13,8 C 21,4 C 3,2 km/h (1 Bft) 98,00 %
29.09.2016 12:42 21,7 C 61 % 1021,9 hPa 0,0 l/m 1,1 km/h (1 Bft) N-NO 21 2 min 0,000 mm 3,4 UV-I 612 W/m 13,8 C 21,7 C 3,2 km/h (1 Bft) 95,74 %
29.09.2016 12:44 21,8 C 60 % 1021,8 hPa 0,0 l/m 2,1 km/h (1 Bft) NO 44 2 min 0,000 mm 3,4 UV-I 616 W/m 13,7 C 21,8 C 4,8 km/h (1 Bft) 96,00 %
29.09.2016 12:46 21,6 C 58 % 1021,8 hPa 0,0 l/m 1,6 km/h (1 Bft) N-NO 15 2 min 0,000 mm 3,4 UV-I 601 W/m 13,0 C 21,6 C 3,2 km/h (1 Bft) 97,87 %
29.09.2016 12:48 21,5 C 61 % 1021,8 hPa 0,0 l/m 3,0 km/h (1 Bft) N-NO 17 2 min 0,000 mm 3,4 UV-I 607 W/m 13,7 C 21,5 C 4,8 km/h (1 Bft) 98,00 %
29.09.2016 12:50 21,5 C 60 % 1021,7 hPa 0,0 l/m 2,4 km/h (1 Bft) N 10 2 min 0,000 mm 3,4 UV-I 620 W/m 13,4 C 21,5 C 4,8 km/h (1 Bft) 97,37 %
29.09.2016 12:52 21,6 C 62 % 1021,7 hPa 0,0 l/m 3,7 km/h (1 Bft) N-NO 26 2 min 0,000 mm 3,4 UV-I 620 W/m 14,0 C 21,6 C 8,0 km/h (2 Bft) 98,00 %
29.09.2016 12:54 21,8 C 62 % 1021,7 hPa 0,0 l/m 4,2 km/h (1 Bft) N-NO 20 2 min 0,000 mm 3,4 UV-I 621 W/m 14,2 C 21,8 C 8,0 km/h (2 Bft) 97,73 %
29.09.2016 12:56 22,0 C 61 % 1021,6 hPa 0,0 l/m 5,3 km/h (1 Bft) N-NO 29 2 min 0,000 mm 3,4 UV-I 621 W/m 14,1 C 22,0 C 8,0 km/h (2 Bft) 96,23 %
29.09.2016 12:58 22,1 C 58 % 1021,6 hPa 0,0 l/m 4,0 km/h (1 Bft) N 9 2 min 0,000 mm 3,4 UV-I 622 W/m 13,4 C 22,1 C 6,4 km/h (2 Bft) 97,22 %
29.09.2016 13:00 21,9 C 61 % 1021,6 hPa 0,0 l/m 2,7 km/h (1 Bft) N-NO 29 2 min 0,381 mm 3,4 UV-I 622 W/m 14,0 C 21,9 C 6,4 km/h (2 Bft) 98,08 %
29.09.2016 13:02 22,3 C 61 % 1021,6 hPa 0,0 l/m 3,3 km/h (1 Bft) W-NW 296 2 min 0,000 mm 3,4 UV-I 610 W/m 14,4 C 22,3 C 8,0 km/h (2 Bft) 98,00 %
29.09.2016 13:04 22,2 C 60 % 1021,5 hPa 0,0 l/m 2,3 km/h (1 Bft) N 10 2 min 0,000 mm 3,4 UV-I 626 W/m 14,1 C 22,2 C 4,8 km/h (1 Bft) 100,00 %
29.09.2016 13:06 22,2 C 57 % 1021,5 hPa 0,0 l/m 3,1 km/h (1 Bft) N-NO 26 2 min 0,000 mm 3,4 UV-I 623 W/m 13,3 C 22,2 C 4,8 km/h (1 Bft) 100,00 %
29.09.2016 13:08 22,1 C 58 % 1021,4 hPa 0,0 l/m 1,5 km/h (1 Bft) NO 41 2 min 0,000 mm 3,3 UV-I 587 W/m 13,4 C 22,1 C 3,2 km/h (1 Bft) 100,00 %
29.09.2016 13:10 22,1 C 57 % 1021,4 hPa 0,0 l/m 2,5 km/h (1 Bft) W 271 2 min 0,000 mm 3,4 UV-I 623 W/m 13,2 C 22,1 C 6,4 km/h (2 Bft) 100,00 %
29.09.2016 13:12 22,1 C 57 % 1021,4 hPa 0,0 l/m 3,4 km/h (1 Bft) N-NW 329 2 min 0,000 mm 3,4 UV-I 623 W/m 13,2 C 22,1 C 11,3 km/h (2 Bft) 100,00 %
29.09.2016 13:14 22,1 C 57 % 1021,3 hPa 0,0 l/m 4,4 km/h (1 Bft) W 277 2 min 0,000 mm 3,4 UV-I 620 W/m 13,2 C 22,1 C 6,4 km/h (2 Bft) 100,00 %
29.09.2016 13:16 22,0 C 55 % 1021,3 hPa 0,0 l/m 6,9 km/h (2 Bft) W-SW 246 2 min 0,000 mm 3,4 UV-I 617 W/m 12,5 C 21,8 C 11,3 km/h (2 Bft) 97,87 %
29.09.2016 13:18 21,9 C 55 % 1021,3 hPa 0,0 l/m 7,0 km/h (2 Bft) W-SW 245 2 min 0,000 mm 3,4 UV-I 616 W/m 12,4 C 21,7 C 9,7 km/h (2 Bft) 100,00 %
29.09.2016 13:20 21,8 C 56 % 1021,2 hPa 0,0 l/m 4,9 km/h (1 Bft) W-SW 248 2 min 0,000 mm 3,4 UV-I 615 W/m 12,6 C 21,8 C 8,0 km/h (2 Bft) 100,00 %
29.09.2016 13:22 21,8 C 57 % 1021,2 hPa 0,0 l/m 4,2 km/h (1 Bft) SW 229 2 min 0,000 mm 3,4 UV-I 615 W/m 12,9 C 21,8 C 11,3 km/h (2 Bft) 97,87 %
29.09.2016 13:24 21,9 C 56 % 1021,1 hPa 0,0 l/m 5,4 km/h (1 Bft) S 182 2 min 0,000 mm 3,4 UV-I 615 W/m 12,7 C 21,9 C 9,7 km/h (2 Bft) 98,11 %
29.09.2016 13:26 22,0 C 57 % 1021,0 hPa 0,0 l/m 2,0 km/h (1 Bft) S 182 2 min 0,000 mm 3,4 UV-I 613 W/m 13,1 C 22,0 C 4,8 km/h (1 Bft) 100,00 %
29.09.2016 13:28 22,0 C 57 % 1021,1 hPa 0,0 l/m 2,0 km/h (1 Bft) W 281 2 min 0,000 mm 3,3 UV-I 611 W/m 13,1 C 22,0 C 4,8 km/h (1 Bft) 97,87 %
29.09.2016 13:30 22,2 C 57 % 1021,0 hPa 0,0 l/m 3,0 km/h (1 Bft) NW 323 2 min 0,000 mm 3,3 UV-I 611 W/m 13,3 C 22,2 C 4,8 km/h (1 Bft) 100,00 %
29.09.2016 13:32 22,3 C 60 % 1021,0 hPa 0,0 l/m 1,7 km/h (1 Bft) NW 317 2 min 0,000 mm 3,3 UV-I 613 W/m 14,2 C 22,3 C 4,8 km/h (1 Bft) 100,00 %
29.09.2016 13:34 22,5 C 57 % 1020,9 hPa 0,0 l/m 1,0 km/h (0 Bft) N-NW 331 2 min 0,000 mm 3,3 UV-I 611 W/m 13,5 C 22,5 C 3,2 km/h (1 Bft) 100,00 %
29.09.2016 13:36 22,5 C 60 % 1020,9 hPa 0,0 l/m 2,8 km/h (1 Bft) N-NW 329 2 min 0,000 mm 3,3 UV-I 606 W/m 14,3 C 22,5 C 6,4 km/h (2 Bft) 100,00 %
29.09.2016 13:38 22,4 C 58 % 1020,9 hPa 0,0 l/m 4,0 km/h (1 Bft) NW 314 2 min 0,000 mm 3,3 UV-I 606 W/m 13,7 C 22,4 C 9,7 km/h (2 Bft) 100,00 %
29.09.2016 13:40 22,3 C 59 % 1020,8 hPa 0,0 l/m 2,6 km/h (1 Bft) N-NO 14 2 min 0,000 mm 3,3 UV-I 604 W/m 13,9 C 22,3 C 4,8 km/h (1 Bft) 100,00 %
29.09.2016 13:42 22,4 C 61 % 1020,7 hPa 0,0 l/m 2,8 km/h (1 Bft) N-NW 342 2 min 0,000 mm 3,3 UV-I 605 W/m 14,5 C 22,4 C 6,4 km/h (2 Bft) 100,00 %
29.09.2016 13:44 22,7 C 58 % 1020,7 hPa 0,0 l/m 3,7 km/h (1 Bft) S 190 2 min 0,000 mm 3,2 UV-I 603 W/m 14,0 C 22,7 C 4,8 km/h (1 Bft) 100,00 %
29.09.2016 13:46 22,7 C 55 % 1020,7 hPa 0,0 l/m 2,3 km/h (1 Bft) S-SW 196 2 min 0,000 mm 3,2 UV-I 605 W/m 13,2 C 22,7 C 4,8 km/h (1 Bft) 100,00 %
29.09.2016 13:48 22,6 C 55 % 1020,6 hPa 0,0 l/m 1,5 km/h (1 Bft) S-SW 194 2 min 0,000 mm 3,2 UV-I 603 W/m 13,1 C 22,6 C 3,2 km/h (1 Bft) 97,87 %
29.09.2016 13:50 22,6 C 56 % 1020,6 hPa 0,0 l/m 3,0 km/h (1 Bft) SW 231 2 min 0,000 mm 3,0 UV-I 602 W/m 13,4 C 22,6 C 6,4 km/h (2 Bft) 100,00 %
29.09.2016 13:52 22,6 C 54 % 1020,6 hPa 0,0 l/m 8,3 km/h (2 Bft) W-NW 292 2 min 0,000 mm 2,8 UV-I 601 W/m 12,8 C 22,0 C 11,3 km/h (2 Bft) 97,73 %
29.09.2016 13:54 22,5 C 55 % 1020,5 hPa 0,0 l/m 2,0 km/h (1 Bft) W-NW 295 2 min 0,000 mm 3,2 UV-I 599 W/m 13,0 C 22,5 C 4,8 km/h (1 Bft) 100,00 %
29.09.2016 13:56 22,3 C 55 % 1020,5 hPa 0,0 l/m 1,6 km/h (1 Bft) W 265 2 min 0,000 mm 3,1 UV-I 598 W/m 12,8 C 22,3 C 6,4 km/h (2 Bft) 100,00 %
29.09.2016 13:58 22,5 C 56 % 1020,5 hPa 0,0 l/m 4,5 km/h (1 Bft) S-SW 202 2 min 0,000 mm 3,1 UV-I 598 W/m 13,3 C 22,5 C 11,3 km/h (2 Bft) 100,00 %
29.09.2016 14:00 22,6 C 53 % 1020,4 hPa 0,0 l/m 2,0 km/h (1 Bft) S-SW 202 2 min 0,381 mm 3,1 UV-I 597 W/m 12,5 C 22,6 C 6,4 km/h (2 Bft) 98,11 %
29.09.2016 14:02 22,7 C 55 % 1020,4 hPa 0,0 l/m 2,7 km/h (1 Bft) W-SW 240 2 min 0,000 mm 3,1 UV-I 591 W/m 13,2 C 22,7 C 4,8 km/h (1 Bft) 100,00 %
29.09.2016 14:05 22,8 C 54 % 1020,3 hPa 0,0 l/m 3,2 km/h (1 Bft) S-SO 157 3 min 0,000 mm 3,1 UV-I 591 W/m 13,0 C 22,8 C 6,4 km/h (2 Bft) 100,00 %
29.09.2016 14:10 23,3 C 53 % 1020,3 hPa 0,0 l/m 4,8 km/h (1 Bft) S 180 5 min 0,000 mm 3,0 UV-I 587 W/m 13,2 C 23,3 C 9,7 km/h (2 Bft) 100,00 %
29.09.2016 14:16 23,1 C 55 % 1020,2 hPa 0,0 l/m 4,6 km/h (1 Bft) W 260 6 min 0,000 mm 2,9 UV-I 577 W/m 13,6 C 23,1 C 6,4 km/h (2 Bft) 100,00 %
29.09.2016 14:18 23,1 C 55 % 1020,1 hPa 0,0 l/m 4,0 km/h (1 Bft) W 273 2 min 0,000 mm 2,9 UV-I 574 W/m 13,6 C 23,1 C 6,4 km/h (2 Bft) 100,00 %
29.09.2016 14:20 23,1 C 55 % 1020,1 hPa 0,0 l/m 3,9 km/h (1 Bft) W 275 2 min 0,000 mm 2,9 UV-I 570 W/m 13,6 C 23,1 C 6,4 km/h (2 Bft) 100,00 %
29.09.2016 14:22 23,1 C 56 % 1020,0 hPa 0,0 l/m 3,0 km/h (1 Bft) NW 306 2 min 0,000 mm 2,8 UV-I 570 W/m 13,8 C 23,1 C 4,8 km/h (1 Bft) 100,00 %
29.09.2016 14:25 23,1 C 54 % 1019,9 hPa 0,0 l/m 1,6 km/h (1 Bft) NW 315 3 min 0,000 mm 2,8 UV-I 567 W/m 13,3 C 23,1 C 4,8 km/h (1 Bft) 100,00 %
29.09.2016 14:28 23,0 C 53 % 1019,9 hPa 0,0 l/m 2,1 km/h (1 Bft) W-NW 303 3 min 0,000 mm 2,8 UV-I 562 W/m 12,9 C 23,0 C 3,2 km/h (1 Bft) 100,00 %
29.09.2016 14:30 23,1 C 53 % 1019,8 hPa 0,0 l/m 0,5 km/h (0 Bft) W-NW 303 2 min 0,000 mm 2,7 UV-I 558 W/m 13,0 C 23,1 C 3,2 km/h (1 Bft) 94,34 %
29.09.2016 14:32 23,3 C 53 % 1019,8 hPa 0,0 l/m 1,7 km/h (1 Bft) W 269 2 min 0,000 mm 2,7 UV-I 551 W/m 13,2 C 23,3 C 4,8 km/h (1 Bft) 97,87 %
29.09.2016 14:34 23,3 C 53 % 1019,8 hPa 0,0 l/m 3,0 km/h (1 Bft) W-NW 294 2 min 0,000 mm 2,7 UV-I 554 W/m 13,2 C 23,3 C 6,4 km/h (2 Bft) 98,00 %
29.09.2016 14:36 23,2 C 54 % 1019,9 hPa 0,0 l/m 2,3 km/h (1 Bft) W-NW 298 2 min 0,000 mm 2,6 UV-I 551 W/m 13,4 C 23,2 C 4,8 km/h (1 Bft) 97,87 %
29.09.2016 14:38 23,2 C 55 % 1019,8 hPa 0,0 l/m 0,7 km/h (0 Bft) W 274 2 min 0,000 mm 2,6 UV-I 546 W/m 13,6 C 23,2 C 3,2 km/h (1 Bft) 97,14 %
29.09.2016 14:40 23,1 C 52 % 1019,7 hPa 0,0 l/m 6,4 km/h (2 Bft) W-NW 284 2 min 0,000 mm 2,6 UV-I 542 W/m 12,7 C 23,1 C 9,7 km/h (2 Bft) 98,11 %
29.09.2016 14:42 23,1 C 51 % 1019,7 hPa 0,0 l/m 2,5 km/h (1 Bft) W 271 2 min 0,000 mm 2,5 UV-I 535 W/m 12,4 C 23,1 C 6,4 km/h (2 Bft) 98,11 %
29.09.2016 14:44 23,2 C 51 % 1019,7 hPa 0,0 l/m 1,4 km/h (1 Bft) W 275 2 min 0,000 mm 2,5 UV-I 530 W/m 12,5 C 23,2 C 4,8 km/h (1 Bft) 97,37 %
29.09.2016 14:46 23,2 C 51 % 1019,6 hPa 0,0 l/m 4,9 km/h (1 Bft) W-SW 246 2 min 0,000 mm 2,5 UV-I 532 W/m 12,5 C 23,2 C 8,0 km/h (2 Bft) 96,23 %
29.09.2016 14:48 23,1 C 51 % 1019,6 hPa 0,0 l/m 4,6 km/h (1 Bft) W-NW 286 2 min 0,000 mm 2,4 UV-I 530 W/m 12,4 C 23,1 C 6,4 km/h (2 Bft) 98,00 %
29.09.2016 14:50 23,1 C 53 % 1019,5 hPa 0,0 l/m 3,7 km/h (1 Bft) SW 234 2 min 0,000 mm 2,1 UV-I 526 W/m 13,0 C 23,1 C 6,4 km/h (2 Bft) 97,87 %
29.09.2016 14:52 23,2 C 52 % 1019,5 hPa 0,0 l/m 2,0 km/h (1 Bft) W-SW 250 2 min 0,000 mm 2,2 UV-I 523 W/m 12,8 C 23,2 C 4,8 km/h (1 Bft) 95,74 %
29.09.2016 14:54 23,3 C 53 % 1019,5 hPa 0,0 l/m 3,5 km/h (1 Bft) SW 236 2 min 0,000 mm 2,3 UV-I 521 W/m 13,2 C 23,3 C 4,8 km/h (1 Bft) 94,74 %
29.09.2016 14:56 23,3 C 51 % 1019,4 hPa 0,0 l/m 2,3 km/h (1 Bft) SW 236 2 min 0,000 mm 2,3 UV-I 513 W/m 12,6 C 23,3 C 4,8 km/h (1 Bft) 96,23 %
29.09.2016 14:58 23,4 C 56 % 1019,4 hPa 0,0 l/m 1,3 km/h (1 Bft) SW 236 2 min 0,000 mm 2,3 UV-I 510 W/m 14,1 C 23,4 C 3,2 km/h (1 Bft) 98,00 %
29.09.2016 15:00 23,6 C 54 % 1019,4 hPa 0,0 l/m 0,5 km/h (0 Bft) SW 236 2 min 0,356 mm 2,2 UV-I 509 W/m 13,7 C 23,6 C 1,6 km/h (1 Bft) 97,73 %
29.09.2016 15:02 23,7 C 52 % 1019,4 hPa 0,0 l/m 1,0 km/h (0 Bft) W-SW 242 2 min 0,000 mm 2,2 UV-I 505 W/m 13,2 C 23,7 C 3,2 km/h (1 Bft) 97,56 %
29.09.2016 15:04 23,5 C 52 % 1019,3 hPa 0,0 l/m 2,2 km/h (1 Bft) W-SW 246 2 min 0,000 mm 2,2 UV-I 505 W/m 13,1 C 23,5 C 4,8 km/h (1 Bft) 100,00 %
29.09.2016 15:06 23,4 C 54 % 1019,3 hPa 0,0 l/m 1,0 km/h (0 Bft) W 259 2 min 0,000 mm 2,2 UV-I 503 W/m 13,6 C 23,4 C 3,2 km/h (1 Bft) 100,00 %
29.09.2016 15:08 23,4 C 53 % 1019,3 hPa 0,0 l/m 0,7 km/h (0 Bft) W 262 2 min 0,000 mm 2,1 UV-I 499 W/m 13,3 C 23,4 C 1,6 km/h (1 Bft) 98,21 %
29.09.2016 15:10 23,3 C 51 % 1019,2 hPa 0,0 l/m 2,7 km/h (1 Bft) N-NW 347 2 min 0,000 mm 2,1 UV-I 493 W/m 12,6 C 23,3 C 6,4 km/h (2 Bft) 100,00 %
29.09.2016 15:12 23,2 C 52 % 1019,2 hPa 0,0 l/m 0,7 km/h (0 Bft) N-NW 347 2 min 0,000 mm 2,1 UV-I 491 W/m 12,8 C 23,2 C 3,2 km/h (1 Bft) 100,00 %
29.09.2016 15:14 23,3 C 52 % 1019,1 hPa 0,0 l/m 2,2 km/h (1 Bft) N-NO 16 2 min 0,000 mm 2,0 UV-I 487 W/m 12,9 C 23,3 C 4,8 km/h (1 Bft) 100,00 %
29.09.2016 15:16 23,5 C 55 % 1019,1 hPa 0,0 l/m 4,3 km/h (1 Bft) N-NO 28 2 min 0,000 mm 2,0 UV-I 484 W/m 13,9 C 23,5 C 8,0 km/h (2 Bft) 97,87 %
29.09.2016 15:18 23,7 C 53 % 1019,1 hPa 0,0 l/m 4,1 km/h (1 Bft) N-NO 20 2 min 0,000 mm 2,0 UV-I 477 W/m 13,5 C 23,7 C 6,4 km/h (2 Bft) 100,00 %
29.09.2016 15:20 23,7 C 51 % 1019,0 hPa 0,0 l/m 1,5 km/h (1 Bft) N 10 2 min 0,000 mm 1,9 UV-I 476 W/m 13,0 C 23,7 C 6,4 km/h (2 Bft) 100,00 %
29.09.2016 15:22 23,6 C 51 % 1019,0 hPa 0,0 l/m 0,8 km/h (0 Bft) N 11 2 min 0,000 mm 1,9 UV-I 475 W/m 12,9 C 23,6 C 3,2 km/h (1 Bft) 100,00 %
29.09.2016 15:24 23,6 C 52 % 1019,0 hPa 0,0 l/m 0,8 km/h (0 Bft) N 9 2 min 0,000 mm 1,9 UV-I 472 W/m 13,2 C 23,6 C 3,2 km/h (1 Bft) 100,00 %
29.09.2016 15:26 23,6 C 52 % 1019,0 hPa 0,0 l/m 0,2 km/h (0 Bft) N 9 2 min 0,000 mm 1,8 UV-I 468 W/m 13,2 C 23,6 C 1,6 km/h (1 Bft) 100,00 %
29.09.2016 15:28 23,8 C 51 % 1018,9 hPa 0,0 l/m 2,0 km/h (1 Bft) O-SO 113 2 min 0,000 mm 1,8 UV-I 464 W/m 13,0 C 23,8 C 4,8 km/h (1 Bft) 100,00 %
29.09.2016 15:30 23,8 C 52 % 1018,9 hPa 0,0 l/m 1,5 km/h (1 Bft) O-SO 113 2 min 0,000 mm 1,8 UV-I 457 W/m 13,3 C 23,8 C 3,2 km/h (1 Bft) 100,00 %
29.09.2016 15:32 23,7 C 50 % 1018,8 hPa 0,0 l/m 2,3 km/h (1 Bft) W-NW 291 2 min 0,000 mm 1,8 UV-I 454 W/m 12,6 C 23,7 C 4,8 km/h (1 Bft) 97,87 %
29.09.2016 15:34 23,7 C 51 % 1018,8 hPa 0,0 l/m 2,9 km/h (1 Bft) W-NW 285 2 min 0,000 mm 1,7 UV-I 450 W/m 13,0 C 23,7 C 4,8 km/h (1 Bft) 100,00 %
29.09.2016 15:36 23,7 C 51 % 1018,8 hPa 0,0 l/m 3,7 km/h (1 Bft) W-SW 251 2 min 0,000 mm 1,7 UV-I 446 W/m 13,0 C 23,7 C 8,0 km/h (2 Bft) 100,00 %
29.09.2016 15:38 23,7 C 50 % 1018,8 hPa 0,0 l/m 3,2 km/h (1 Bft) W-SW 246 2 min 0,000 mm 1,7 UV-I 444 W/m 12,6 C 23,7 C 4,8 km/h (1 Bft) 97,87 %
29.09.2016 15:40 23,7 C 52 % 1018,8 hPa 0,0 l/m 2,4 km/h (1 Bft) W-SW 246 2 min 0,000 mm 1,6 UV-I 440 W/m 13,2 C 23,7 C 4,8 km/h (1 Bft) 100,00 %
29.09.2016 15:42 23,7 C 51 % 1018,7 hPa 0,0 l/m 1,0 km/h (0 Bft) W-SW 246 2 min 0,000 mm 1,6 UV-I 435 W/m 13,0 C 23,7 C 3,2 km/h (1 Bft) 100,00 %
29.09.2016 15:44 23,7 C 52 % 1018,7 hPa 0,0 l/m 0,8 km/h (0 Bft) W-SW 246 2 min 0,000 mm 1,6 UV-I 432 W/m 13,2 C 23,7 C 3,2 km/h (1 Bft) 97,87 %
29.09.2016 15:46 23,7 C 53 % 1018,7 hPa 0,0 l/m 0,7 km/h (0 Bft) W 279 2 min 0,000 mm 1,5 UV-I 426 W/m 13,5 C 23,7 C 3,2 km/h (1 Bft) 100,00 %
29.09.2016 15:48 23,7 C 51 % 1018,6 hPa 0,0 l/m 2,5 km/h (1 Bft) NW 317 2 min 0,000 mm 1,5 UV-I 423 W/m 13,0 C 23,7 C 4,8 km/h (1 Bft) 98,00 %
29.09.2016 15:50 23,7 C 52 % 1018,6 hPa 0,0 l/m 1,8 km/h (1 Bft) NW 321 2 min 0,000 mm 1,5 UV-I 418 W/m 13,2 C 23,7 C 3,2 km/h (1 Bft) 100,00 %
29.09.2016 15:52 23,7 C 51 % 1018,6 hPa 0,0 l/m 1,6 km/h (1 Bft) W 271 2 min 0,000 mm 1,4 UV-I 413 W/m 13,0 C 23,7 C 6,4 km/h (2 Bft) 97,92 %
29.09.2016 15:54 23,7 C 48 % 1018,6 hPa 0,0 l/m 3,4 km/h (1 Bft) W 269 2 min 0,000 mm 1,4 UV-I 409 W/m 12,0 C 23,7 C 9,7 km/h (2 Bft) 100,00 %
29.09.2016 15:56 23,8 C 51 % 1018,5 hPa 0,0 l/m 2,1 km/h (1 Bft) W 269 2 min 0,000 mm 1,4 UV-I 403 W/m 13,0 C 23,8 C 4,8 km/h (1 Bft) 100,00 %
29.09.2016 15:58 23,9 C 50 % 1018,5 hPa 0,0 l/m 0,7 km/h (0 Bft) W 269 2 min 0,000 mm 1,4 UV-I 400 W/m 12,8 C 23,9 C 1,6 km/h (1 Bft) 97,87 %
29.09.2016 16:00 23,9 C 50 % 1018,4 hPa 0,0 l/m 4,2 km/h (1 Bft) W 261 2 min 0,305 mm 1,3 UV-I 394 W/m 12,8 C 23,9 C 6,4 km/h (2 Bft) 100,00 %
29.09.2016 16:02 23,9 C 47 % 1018,4 hPa 0,0 l/m 1,1 km/h (1 Bft) W 259 2 min 0,000 mm 1,3 UV-I 393 W/m 11,9 C 23,9 C 3,2 km/h (1 Bft) 100,00 %
29.09.2016 16:04 23,9 C 50 % 1018,4 hPa 0,0 l/m 2,2 km/h (1 Bft) W-SW 257 2 min 0,000 mm 1,3 UV-I 388 W/m 12,8 C 23,9 C 4,8 km/h (1 Bft) 97,87 %
29.09.2016 16:06 23,8 C 48 % 1018,3 hPa 0,0 l/m 1,8 km/h (1 Bft) SW 230 2 min 0,000 mm 1,2 UV-I 382 W/m 12,1 C 23,8 C 4,8 km/h (1 Bft) 100,00 %
29.09.2016 16:08 23,7 C 49 % 1018,3 hPa 0,0 l/m 0,4 km/h (0 Bft) SW 230 2 min 0,000 mm 1,2 UV-I 375 W/m 12,3 C 23,7 C 3,2 km/h (1 Bft) 100,00 %
29.09.2016 16:10 23,7 C 51 % 1018,3 hPa 0,0 l/m 2,0 km/h (1 Bft) W 264 2 min 0,000 mm 1,2 UV-I 370 W/m 13,0 C 23,7 C 3,2 km/h (1 Bft) 100,00 %
29.09.2016 16:12 23,7 C 50 % 1018,3 hPa 0,0 l/m 1,2 km/h (1 Bft) W 264 2 min 0,000 mm 1,2 UV-I 366 W/m 12,6 C 23,7 C 3,2 km/h (1 Bft) 100,00 %
29.09.2016 16:14 23,7 C 51 % 1018,3 hPa 0,0 l/m 0,7 km/h (0 Bft) W 264 2 min 0,000 mm 1,1 UV-I 361 W/m 13,0 C 23,7 C 3,2 km/h (1 Bft) 100,00 %
29.09.2016 16:16 23,7 C 52 % 1018,2 hPa 0,0 l/m 0,8 km/h (0 Bft) W 264 2 min 0,000 mm 1,1 UV-I 358 W/m 13,2 C 23,7 C 3,2 km/h (1 Bft) 100,00 %
29.09.2016 16:18 23,7 C 49 % 1018,2 hPa 0,0 l/m 3,3 km/h (1 Bft) W 265 2 min 0,000 mm 1,1 UV-I 353 W/m 12,3 C 23,7 C 6,4 km/h (2 Bft) 100,00 %
29.09.2016 16:20 23,7 C 49 % 1018,2 hPa 0,0 l/m 1,5 km/h (1 Bft) N-NW 347 2 min 0,000 mm 1,0 UV-I 349 W/m 12,3 C 23,7 C 3,2 km/h (1 Bft) 100,00 %
29.09.2016 16:22 23,7 C 50 % 1018,2 hPa 0,0 l/m 1,6 km/h (1 Bft) N 5 2 min 0,000 mm 1,0 UV-I 343 W/m 12,6 C 23,7 C 4,8 km/h (1 Bft) 100,00 %
29.09.2016 16:24 23,7 C 49 % 1018,1 hPa 0,0 l/m 1,4 km/h (1 Bft) NW 321 2 min 0,000 mm 1,0 UV-I 339 W/m 12,3 C 23,7 C 3,2 km/h (1 Bft) 100,00 %
29.09.2016 16:26 23,7 C 50 % 1018,2 hPa 0,0 l/m 1,2 km/h (1 Bft) NW 321 2 min 0,000 mm 0,8 UV-I 334 W/m 12,6 C 23,7 C 3,2 km/h (1 Bft) 97,37 %
29.09.2016 16:28 23,7 C 48 % 1018,1 hPa 0,0 l/m 1,8 km/h (1 Bft) W-NW 294 2 min 0,000 mm 0,9 UV-I 327 W/m 12,0 C 23,7 C 4,8 km/h (1 Bft) 94,92 %
29.09.2016 16:30 23,7 C 49 % 1018,1 hPa 0,0 l/m 0,9 km/h (0 Bft) W-NW 294 2 min 0,000 mm 0,9 UV-I 322 W/m 12,3 C 23,7 C 1,6 km/h (1 Bft) 98,00 %
29.09.2016 16:32 23,7 C 48 % 1018,0 hPa 0,0 l/m 0,5 km/h (0 Bft) W-NW 294 2 min 0,000 mm 0,9 UV-I 315 W/m 12,0 C 23,7 C 1,6 km/h (1 Bft) 97,37 %
29.09.2016 16:34 23,7 C 51 % 1018,0 hPa 0,0 l/m 1,9 km/h (1 Bft) N 355 2 min 0,000 mm 0,8 UV-I 309 W/m 13,0 C 23,7 C 4,8 km/h (1 Bft) 98,00 %
29.09.2016 16:36 23,7 C 51 % 1018,0 hPa 0,0 l/m 1,0 km/h (0 Bft) N-NW 347 2 min 0,000 mm 0,8 UV-I 293 W/m 13,0 C 23,7 C 3,2 km/h (1 Bft) 97,87 %
29.09.2016 16:38 23,7 C 51 % 1017,9 hPa 0,0 l/m 1,4 km/h (1 Bft) N-NW 342 2 min 0,000 mm 0,8 UV-I 300 W/m 13,0 C 23,7 C 3,2 km/h (1 Bft) 98,00 %
29.09.2016 16:40 23,7 C 50 % 1017,9 hPa 0,0 l/m 1,3 km/h (1 Bft) N-NW 342 2 min 0,000 mm 0,8 UV-I 295 W/m 12,6 C 23,7 C 3,2 km/h (1 Bft) 97,87 %
29.09.2016 16:42 23,6 C 51 % 1017,9 hPa 0,0 l/m 0,8 km/h (0 Bft) N-NW 342 2 min 0,000 mm 0,7 UV-I 290 W/m 12,9 C 23,6 C 3,2 km/h (1 Bft) 95,65 %
29.09.2016 16:44 23,7 C 52 % 1017,9 hPa 0,0 l/m 3,7 km/h (1 Bft) N 9 2 min 0,000 mm 0,7 UV-I 285 W/m 13,2 C 23,7 C 4,8 km/h (1 Bft) 98,46 %
29.09.2016 16:46 23,6 C 51 % 1017,9 hPa 0,0 l/m 1,7 km/h (1 Bft) N 9 2 min 0,000 mm 0,7 UV-I 280 W/m 12,9 C 23,6 C 4,8 km/h (1 Bft) 96,23 %
29.09.2016 16:48 23,5 C 52 % 1017,9 hPa 0,0 l/m 0,7 km/h (0 Bft) N 11 2 min 0,000 mm 0,7 UV-I 276 W/m 13,1 C 23,5 C 3,2 km/h (1 Bft) 100,00 %
29.09.2016 16:50 23,5 C 52 % 1017,9 hPa 0,0 l/m 3,6 km/h (1 Bft) N-NO 28 2 min 0,000 mm 0,6 UV-I 270 W/m 13,1 C 23,5 C 4,8 km/h (1 Bft) 96,00 %
29.09.2016 16:52 23,6 C 52 % 1017,8 hPa 0,0 l/m 4,2 km/h (1 Bft) N-NO 33 2 min 0,000 mm 0,6 UV-I 266 W/m 13,2 C 23,6 C 6,4 km/h (2 Bft) 96,23 %
29.09.2016 16:54 23,6 C 52 % 1017,8 hPa 0,0 l/m 2,5 km/h (1 Bft) N-NO 33 2 min 0,000 mm 0,6 UV-I 258 W/m 13,2 C 23,6 C 3,2 km/h (1 Bft) 98,00 %
29.09.2016 16:56 23,6 C 51 % 1017,8 hPa 0,0 l/m 2,8 km/h (1 Bft) NO 37 2 min 0,000 mm 0,6 UV-I 255 W/m 12,9 C 23,6 C 4,8 km/h (1 Bft) 97,37 %
29.09.2016 16:58 23,6 C 52 % 1017,8 hPa 0,0 l/m 4,7 km/h (1 Bft) NO 34 2 min 0,000 mm 0,5 UV-I 249 W/m 13,2 C 23,6 C 6,4 km/h (2 Bft) 100,00 %
29.09.2016 17:00 23,6 C 53 % 1017,8 hPa 0,0 l/m 4,0 km/h (1 Bft) NO 34 2 min 0,228 mm 0,5 UV-I 244 W/m 13,4 C 23,6 C 4,8 km/h (1 Bft) 100,00 %
29.09.2016 17:02 23,5 C 52 % 1017,8 hPa 0,0 l/m 3,1 km/h (1 Bft) N-NO 31 2 min 0,000 mm 0,5 UV-I 237 W/m 13,1 C 23,5 C 4,8 km/h (1 Bft) 100,00 %
29.09.2016 17:05 23,4 C 51 % 1017,8 hPa 0,0 l/m 1,6 km/h (1 Bft) N-NO 22 3 min 0,000 mm 0,5 UV-I 232 W/m 12,7 C 23,4 C 4,8 km/h (1 Bft) 95,61 %
29.09.2016 17:10 23,6 C 53 % 1017,8 hPa 0,0 l/m 0,0 km/h (0 Bft) N-NO 22 5 min 0,000 mm 0,1 UV-I 218 W/m 13,4 C 23,6 C 1,6 km/h (1 Bft) 96,49 %
29.09.2016 17:15 23,4 C 52 % 1017,7 hPa 0,0 l/m 0,0 km/h (0 Bft) N-NO 22 5 min 0,000 mm 0,0 UV-I 204 W/m 13,0 C 23,4 C 3,2 km/h (1 Bft) 96,49 %
29.09.2016 17:20 23,4 C 49 % 1017,7 hPa 0,0 l/m 0,0 km/h (0 Bft) O-NO 67 5 min 0,000 mm 0,0 UV-I 191 W/m 12,1 C 23,4 C 3,2 km/h (1 Bft) 96,49 %
29.09.2016 17:25 23,4 C 51 % 1017,6 hPa 0,0 l/m 1,6 km/h (1 Bft) O-NO 67 5 min 0,000 mm 0,0 UV-I 177 W/m 12,7 C 23,4 C 3,2 km/h (1 Bft) 97,37 %
29.09.2016 17:30 23,3 C 51 % 1017,6 hPa 0,0 l/m 1,6 km/h (1 Bft) O-NO 67 5 min 0,000 mm 0,0 UV-I 163 W/m 12,6 C 23,3 C 3,2 km/h (1 Bft) 98,25 %
29.09.2016 17:35 23,2 C 54 % 1017,5 hPa 0,0 l/m 1,6 km/h (1 Bft) NO 45 5 min 0,000 mm 0,0 UV-I 151 W/m 13,4 C 23,2 C 3,2 km/h (1 Bft) 99,12 %
29.09.2016 17:40 23,1 C 55 % 1017,5 hPa 0,0 l/m 1,6 km/h (1 Bft) NO 45 5 min 0,000 mm 0,0 UV-I 139 W/m 13,6 C 23,1 C 3,2 km/h (1 Bft) 99,12 %
29.09.2016 17:45 22,9 C 56 % 1017,5 hPa 0,0 l/m 1,6 km/h (1 Bft) NO 45 5 min 0,000 mm 0,0 UV-I 127 W/m 13,6 C 22,9 C 3,2 km/h (1 Bft) 100,00 %
29.09.2016 17:50 22,8 C 56 % 1017,5 hPa 0,0 l/m 0,0 km/h (0 Bft) NO 45 5 min 0,000 mm 0,0 UV-I 115 W/m 13,6 C 22,8 C 1,6 km/h (1 Bft) 99,12 %
29.09.2016 17:55 22,9 C 56 % 1017,5 hPa 0,0 l/m 0,0 km/h (0 Bft) NO 45 5 min 0,000 mm 0,0 UV-I 102 W/m 13,6 C 22,9 C 1,6 km/h (1 Bft) 100,00 %
29.09.2016 17:58 22,8 C 56 % 1017,5 hPa 0,0 l/m 0,0 km/h (0 Bft) NO 44 3 min 0,000 mm 0,0 UV-I 93 W/m 13,6 C 22,8 C 1,6 km/h (1 Bft) 96,83 %
29.09.2016 18:00 22,8 C 57 % 1017,5 hPa 0,0 l/m 0,0 km/h (0 Bft) NO 44 2 min 0,000 mm 0,0 UV-I 88 W/m 13,8 C 22,8 C 1,6 km/h (1 Bft) 100,00 %
29.09.2016 18:02 22,6 C 58 % 1017,4 hPa 0,0 l/m 0,0 km/h (0 Bft) NO 44 2 min 0,102 mm 0,0 UV-I 83 W/m 13,9 C 22,6 C 0,0 km/h (0 Bft) 97,87 %
29.09.2016 18:04 22,4 C 59 % 1017,5 hPa 0,0 l/m 0,2 km/h (0 Bft) NO 44 2 min 0,000 mm 0,0 UV-I 79 W/m 14,0 C 22,4 C 1,6 km/h (1 Bft) 100,00 %
29.09.2016 18:06 22,3 C 60 % 1017,5 hPa 0,0 l/m 0,0 km/h (0 Bft) NO 44 2 min 0,000 mm 0,0 UV-I 74 W/m 14,2 C 22,3 C 1,6 km/h (1 Bft) 100,00 %
29.09.2016 18:08 22,1 C 60 % 1017,4 hPa 0,0 l/m 0,1 km/h (0 Bft) NO 44 0 min 0,000 mm 0,0 UV-I 48 W/m 14,0 C 22,1 C 1,6 km/h (1 Bft) 100,00 %
29.09.2016 18:10 22,1 C 61 % 1017,4 hPa 0,0 l/m 0,0 km/h (0 Bft) NO 44 0 min 0,000 mm 0,0 UV-I 25 W/m 14,2 C 22,1 C 0,0 km/h (0 Bft) 97,87 %
29.09.2016 18:12 21,9 C 62 % 1017,4 hPa 0,0 l/m 0,1 km/h (0 Bft) NO 44 0 min 0,000 mm 0,0 UV-I 23 W/m 14,3 C 21,9 C 1,6 km/h (1 Bft) 98,00 %
29.09.2016 18:14 21,8 C 64 % 1017,4 hPa 0,0 l/m 0,2 km/h (0 Bft) NO 44 0 min 0,000 mm 0,0 UV-I 23 W/m 14,7 C 21,8 C 1,6 km/h (1 Bft) 100,00 %
29.09.2016 18:16 21,6 C 65 % 1017,5 hPa 0,0 l/m 0,5 km/h (0 Bft) NO 44 0 min 0,000 mm 0,0 UV-I 21 W/m 14,7 C 21,6 C 1,6 km/h (1 Bft) 97,87 %
29.09.2016 18:18 21,3 C 66 % 1017,5 hPa 0,0 l/m 0,2 km/h (0 Bft) NO 44 0 min 0,000 mm 0,0 UV-I 21 W/m 14,7 C 21,3 C 1,6 km/h (1 Bft) 95,74 %
29.09.2016 18:20 21,1 C 66 % 1017,5 hPa 0,0 l/m 0,1 km/h (0 Bft) NO 44 0 min 0,000 mm 0,0 UV-I 20 W/m 14,5 C 21,1 C 1,6 km/h (1 Bft) 95,83 %
29.09.2016 18:22 20,8 C 67 % 1017,5 hPa 0,0 l/m 0,0 km/h (0 Bft) NO 44 0 min 0,000 mm 0,0 UV-I 19 W/m 14,4 C 20,8 C 0,0 km/h (0 Bft) 98,44 %
29.09.2016 18:24 20,6 C 67 % 1017,4 hPa 0,0 l/m 0,0 km/h (0 Bft) NO 44 0 min 0,000 mm 0,0 UV-I 18 W/m 14,3 C 20,6 C 0,0 km/h (0 Bft) 97,87 %
29.09.2016 18:26 20,4 C 68 % 1017,4 hPa 0,0 l/m 0,0 km/h (0 Bft) NO 44 0 min 0,000 mm 0,0 UV-I 18 W/m 14,3 C 20,4 C 0,0 km/h (0 Bft) 97,44 %
29.09.2016 18:28 20,1 C 70 % 1017,4 hPa 0,0 l/m 0,0 km/h (0 Bft) NO 44 0 min 0,000 mm 0,0 UV-I 16 W/m 14,5 C 20,1 C 0,0 km/h (0 Bft) 98,11 %
29.09.2016 18:30 19,9 C 70 % 1017,4 hPa 0,0 l/m 0,0 km/h (0 Bft) NO 44 0 min 0,000 mm 0,0 UV-I 14 W/m 14,3 C 19,9 C 0,0 km/h (0 Bft) 96,00 %
29.09.2016 18:32 19,7 C 71 % 1017,4 hPa 0,0 l/m 0,0 km/h (0 Bft) NO 44 0 min 0,000 mm 0,0 UV-I 13 W/m 14,3 C 19,7 C 0,0 km/h (0 Bft) 98,00 %
29.09.2016 18:34 19,6 C 71 % 1017,4 hPa 0,0 l/m 0,0 km/h (0 Bft) NO 44 2 min 0,000 mm 0,0 UV-I 12 W/m 14,2 C 19,6 C 0,0 km/h (0 Bft) 97,87 %
29.09.2016 18:35 19,6 C 71 % 1017,4 hPa 0,0 l/m 0,0 km/h (0 Bft) N 0 1 min 0,000 mm 0,0 UV-I 12 W/m 14,2 C 19,6 C 0,0 km/h (0 Bft) 100,00 %
29.09.2016 18:38 19,4 C 72 % 1017,4 hPa 0,0 l/m 0,0 km/h (0 Bft) NO 44 0 min 0,000 mm 0,0 UV-I 10 W/m 14,2 C 19,4 C 0,0 km/h (0 Bft) 97,78 %
29.09.2016 18:40 19,4 C 73 % 1017,4 hPa 0,0 l/m 0,0 km/h (0 Bft) NO 44 0 min 0,000 mm 0,0 UV-I 8 W/m 14,4 C 19,4 C 0,0 km/h (0 Bft) 97,87 %
29.09.2016 18:42 19,3 C 73 % 1017,3 hPa 0,0 l/m 0,0 km/h (0 Bft) NO 44 0 min 0,000 mm 0,0 UV-I 7 W/m 14,3 C 19,3 C 0,0 km/h (0 Bft) 97,62 %
29.09.2016 18:44 19,2 C 73 % 1017,4 hPa 0,0 l/m 0,0 km/h (0 Bft) NO 44 0 min 0,000 mm 0,0 UV-I 7 W/m 14,2 C 19,2 C 0,0 km/h (0 Bft) 100,00 %
29.09.2016 18:46 19,1 C 74 % 1017,3 hPa 0,0 l/m 0,0 km/h (0 Bft) NO 44 0 min 0,000 mm 0,0 UV-I 5 W/m 14,4 C 19,1 C 0,0 km/h (0 Bft) 95,74 %
29.09.2016 18:48 19,0 C 74 % 1017,4 hPa 0,0 l/m 0,0 km/h (0 Bft) NO 44 0 min 0,000 mm 0,0 UV-I 5 W/m 14,3 C 19,0 C 0,0 km/h (0 Bft) 96,00 %
29.09.2016 18:50 18,9 C 75 % 1017,4 hPa 0,0 l/m 0,0 km/h (0 Bft) NO 44 0 min 0,000 mm 0,0 UV-I 3 W/m 14,4 C 18,9 C 0,0 km/h (0 Bft) 96,00 %
29.09.2016 18:52 18,8 C 75 % 1017,4 hPa 0,0 l/m 0,0 km/h (0 Bft) NO 44 0 min 0,000 mm 0,0 UV-I 0 W/m 14,3 C 18,8 C 1,6 km/h (1 Bft) 97,87 %
29.09.2016 18:54 18,7 C 75 % 1017,4 hPa 0,0 l/m 0,0 km/h (0 Bft) NO 44 0 min 0,000 mm 0,0 UV-I 0 W/m 14,2 C 18,7 C 0,0 km/h (0 Bft) 100,00 %
29.09.2016 18:56 18,4 C 77 % 1017,4 hPa 0,0 l/m 0,0 km/h (0 Bft) NO 44 0 min 0,000 mm 0,0 UV-I 0 W/m 14,3 C 18,4 C 0,0 km/h (0 Bft) 100,00 %
29.09.2016 18:58 18,3 C 77 % 1017,4 hPa 0,0 l/m 0,0 km/h (0 Bft) NO 44 0 min 0,000 mm 0,0 UV-I 0 W/m 14,2 C 18,3 C 0,0 km/h (0 Bft) 96,00 %
29.09.2016 19:00 18,1 C 77 % 1017,4 hPa 0,0 l/m 0,1 km/h (0 Bft) NO 44 0 min 0,025 mm 0,0 UV-I 0 W/m 14,0 C 18,1 C 1,6 km/h (1 Bft) 100,00 %
29.09.2016 19:02 17,9 C 78 % 1017,4 hPa 0,0 l/m 0,0 km/h (0 Bft) NO 44 0 min 0,000 mm 0,0 UV-I 0 W/m 14,0 C 17,9 C 0,0 km/h (0 Bft) 100,00 %
29.09.2016 19:04 17,7 C 78 % 1017,4 hPa 0,0 l/m 0,3 km/h (0 Bft) NO 44 0 min 0,000 mm 0,0 UV-I 0 W/m 13,8 C 17,7 C 1,6 km/h (1 Bft) 100,00 %
29.09.2016 19:06 17,6 C 79 % 1017,3 hPa 0,0 l/m 0,5 km/h (0 Bft) NO 44 0 min 0,000 mm 0,0 UV-I 0 W/m 13,9 C 17,6 C 1,6 km/h (1 Bft) 100,00 %
29.09.2016 19:08 17,4 C 79 % 1017,3 hPa 0,0 l/m 0,0 km/h (0 Bft) NO 44 0 min 0,000 mm 0,0 UV-I 0 W/m 13,7 C 17,4 C 1,6 km/h (1 Bft) 100,00 %
29.09.2016 19:10 17,4 C 80 % 1017,3 hPa 0,0 l/m 0,1 km/h (0 Bft) NO 44 0 min 0,000 mm 0,0 UV-I 0 W/m 13,9 C 17,4 C 1,6 km/h (1 Bft) 100,00 %
29.09.2016 19:12 17,4 C 80 % 1017,3 hPa 0,0 l/m 0,2 km/h (0 Bft) NO 44 0 min 0,000 mm 0,0 UV-I 0 W/m 13,9 C 17,4 C 1,6 km/h (1 Bft) 100,00 %
29.09.2016 19:14 17,3 C 80 % 1017,3 hPa 0,0 l/m 0,7 km/h (0 Bft) NO 44 0 min 0,000 mm 0,0 UV-I 0 W/m 13,8 C 17,3 C 3,2 km/h (1 Bft) 97,87 %
29.09.2016 19:16 17,1 C 80 % 1017,3 hPa 0,0 l/m 0,5 km/h (0 Bft) NO 44 0 min 0,000 mm 0,0 UV-I 0 W/m 13,6 C 17,1 C 1,6 km/h (1 Bft) 100,00 %
29.09.2016 19:18 16,8 C 81 % 1017,3 hPa 0,0 l/m 1,1 km/h (1 Bft) O-NO 64 0 min 0,000 mm 0,0 UV-I 0 W/m 13,5 C 16,8 C 3,2 km/h (1 Bft) 100,00 %
29.09.2016 19:20 16,8 C 82 % 1017,3 hPa 0,0 l/m 2,0 km/h (1 Bft) O 98 0 min 0,000 mm 0,0 UV-I 0 W/m 13,7 C 16,8 C 3,2 km/h (1 Bft) 100,00 %
29.09.2016 19:22 16,9 C 81 % 1017,3 hPa 0,0 l/m 3,0 km/h (1 Bft) O 100 0 min 0,000 mm 0,0 UV-I 0 W/m 13,6 C 16,9 C 4,8 km/h (1 Bft) 95,74 %
29.09.2016 19:24 17,0 C 81 % 1017,3 hPa 0,0 l/m 3,0 km/h (1 Bft) O 100 0 min 0,000 mm 0,0 UV-I 0 W/m 13,7 C 17,0 C 4,8 km/h (1 Bft) 100,00 %
29.09.2016 19:26 16,9 C 80 % 1017,3 hPa 0,0 l/m 3,4 km/h (1 Bft) O 100 0 min 0,000 mm 0,0 UV-I 0 W/m 13,4 C 16,9 C 4,8 km/h (1 Bft) 100,00 %
29.09.2016 19:28 16,8 C 81 % 1017,3 hPa 0,0 l/m 3,6 km/h (1 Bft) O 100 0 min 0,000 mm 0,0 UV-I 0 W/m 13,5 C 16,8 C 4,8 km/h (1 Bft) 98,11 %
29.09.2016 19:30 16,8 C 81 % 1017,3 hPa 0,0 l/m 2,1 km/h (1 Bft) O 100 0 min 0,000 mm 0,0 UV-I 0 W/m 13,5 C 16,8 C 3,2 km/h (1 Bft) 100,00 %
29.09.2016 19:32 16,7 C 81 % 1017,3 hPa 0,0 l/m 0,1 km/h (0 Bft) O 100 0 min 0,000 mm 0,0 UV-I 0 W/m 13,4 C 16,7 C 1,6 km/h (1 Bft) 97,37 %
29.09.2016 19:34 16,8 C 82 % 1017,3 hPa 0,0 l/m 0,7 km/h (0 Bft) O 100 0 min 0,000 mm 0,0 UV-I 0 W/m 13,7 C 16,8 C 1,6 km/h (1 Bft) 100,00 %
29.09.2016 19:36 16,7 C 82 % 1017,3 hPa 0,0 l/m 2,3 km/h (1 Bft) O 100 0 min 0,000 mm 0,0 UV-I 0 W/m 13,6 C 16,7 C 3,2 km/h (1 Bft) 100,00 %
29.09.2016 19:38 16,7 C 82 % 1017,3 hPa 0,0 l/m 0,6 km/h (0 Bft) O 100 0 min 0,000 mm 0,0 UV-I 0 W/m 13,6 C 16,7 C 1,6 km/h (1 Bft) 98,21 %
29.09.2016 19:40 16,6 C 82 % 1017,3 hPa 0,0 l/m 1,0 km/h (0 Bft) O 100 0 min 0,000 mm 0,0 UV-I 0 W/m 13,5 C 16,6 C 1,6 km/h (1 Bft) 97,87 %
29.09.2016 19:42 16,4 C 82 % 1017,2 hPa 0,0 l/m 0,6 km/h (0 Bft) O 100 0 min 0,000 mm 0,0 UV-I 0 W/m 13,3 C 16,4 C 1,6 km/h (1 Bft) 98,11 %
29.09.2016 19:44 16,2 C 82 % 1017,2 hPa 0,0 l/m 0,4 km/h (0 Bft) O 100 0 min 0,000 mm 0,0 UV-I 0 W/m 13,1 C 16,2 C 1,6 km/h (1 Bft) 97,56 %
29.09.2016 19:46 16,1 C 83 % 1017,2 hPa 0,0 l/m 0,3 km/h (0 Bft) O 100 0 min 0,000 mm 0,0 UV-I 0 W/m 13,2 C 16,1 C 1,6 km/h (1 Bft) 100,00 %
29.09.2016 19:48 15,9 C 84 % 1017,2 hPa 0,0 l/m 0,4 km/h (0 Bft) O 100 0 min 0,000 mm 0,0 UV-I 0 W/m 13,2 C 15,9 C 1,6 km/h (1 Bft) 100,00 %
29.09.2016 19:50 15,9 C 84 % 1017,2 hPa 0,0 l/m 0,2 km/h (0 Bft) O 100 0 min 0,000 mm 0,0 UV-I 0 W/m 13,2 C 15,9 C 1,6 km/h (1 Bft) 97,37 %
29.09.2016 19:52 15,9 C 84 % 1017,2 hPa 0,0 l/m 0,2 km/h (0 Bft) O 100 0 min 0,000 mm 0,0 UV-I 0 W/m 13,2 C 15,9 C 1,6 km/h (1 Bft) 100,00 %
29.09.2016 19:54 15,9 C 84 % 1017,2 hPa 0,0 l/m 0,9 km/h (0 Bft) O 100 0 min 0,000 mm 0,0 UV-I 0 W/m 13,2 C 15,9 C 3,2 km/h (1 Bft) 100,00 %
29.09.2016 19:56 15,9 C 84 % 1017,2 hPa 0,0 l/m 1,6 km/h (1 Bft) O 101 0 min 0,000 mm 0,0 UV-I 0 W/m 13,2 C 15,9 C 3,2 km/h (1 Bft) 100,00 %
29.09.2016 19:58 16,0 C 83 % 1017,2 hPa 0,0 l/m 1,2 km/h (1 Bft) O-SO 112 0 min 0,000 mm 0,0 UV-I 0 W/m 13,1 C 16,0 C 3,2 km/h (1 Bft) 98,00 %
29.09.2016 20:00 16,0 C 83 % 1017,2 hPa 0,0 l/m 1,6 km/h (1 Bft) O-SO 112 0 min 0,000 mm 0,0 UV-I 0 W/m 13,1 C 16,0 C 3,2 km/h (1 Bft) 97,37 %
29.09.2016 20:05 16,1 C 83 % 1017,3 hPa 0,0 l/m 3,2 km/h (1 Bft) SO 135 0 min 0,000 mm 0,0 UV-I 0 W/m 13,2 C 16,1 C 6,4 km/h (2 Bft) 100,00 %
29.09.2016 20:08 16,2 C 83 % 1017,2 hPa 0,0 l/m 4,4 km/h (1 Bft) S-SO 161 0 min 0,000 mm 0,0 UV-I 0 W/m 13,3 C 16,2 C 6,4 km/h (2 Bft) 100,00 %
29.09.2016 20:10 16,3 C 83 % 1017,2 hPa 0,0 l/m 4,6 km/h (1 Bft) S-SO 163 0 min 0,000 mm 0,0 UV-I 0 W/m 13,4 C 16,3 C 8,0 km/h (2 Bft) 100,00 %
29.09.2016 20:14 16,3 C 82 % 1017,2 hPa 0,0 l/m 5,6 km/h (1 Bft) S 173 0 min 0,000 mm 0,0 UV-I 0 W/m 13,2 C 16,3 C 8,0 km/h (2 Bft) 98,94 %
29.09.2016 20:16 16,3 C 82 % 1017,3 hPa 0,0 l/m 5,0 km/h (1 Bft) S 169 0 min 0,000 mm 0,0 UV-I 0 W/m 13,2 C 16,3 C 8,0 km/h (2 Bft) 97,87 %
29.09.2016 20:18 16,4 C 82 % 1017,3 hPa 0,0 l/m 4,1 km/h (1 Bft) S 174 0 min 0,000 mm 0,0 UV-I 0 W/m 13,3 C 16,4 C 8,0 km/h (2 Bft) 100,00 %
29.09.2016 20:20 16,4 C 82 % 1017,3 hPa 0,0 l/m 3,8 km/h (1 Bft) S 174 0 min 0,000 mm 0,0 UV-I 0 W/m 13,3 C 16,4 C 4,8 km/h (1 Bft) 100,00 %
29.09.2016 20:22 16,4 C 81 % 1017,3 hPa 0,0 l/m 3,1 km/h (1 Bft) S-SO 166 0 min 0,000 mm 0,0 UV-I 0 W/m 13,1 C 16,4 C 8,0 km/h (2 Bft) 98,11 %
29.09.2016 20:24 16,4 C 80 % 1017,3 hPa 0,0 l/m 5,4 km/h (1 Bft) S 176 0 min 0,000 mm 0,0 UV-I 0 W/m 12,9 C 16,4 C 8,0 km/h (2 Bft) 100,00 %
29.09.2016 20:25 16,4 C 80 % 1017,3 hPa 0,0 l/m 4,8 km/h (1 Bft) S 180 0 min 0,000 mm 0,0 UV-I 0 W/m 12,9 C 16,4 C 8,0 km/h (2 Bft) 99,12 %
29.09.2016 20:30 16,5 C 77 % 1017,3 hPa 0,0 l/m 4,8 km/h (1 Bft) S 180 0 min 0,000 mm 0,0 UV-I 0 W/m 12,5 C 16,5 C 9,7 km/h (2 Bft) 100,00 %
29.09.2016 20:35 16,6 C 76 % 1017,3 hPa 0,0 l/m 6,4 km/h (2 Bft) S 180 0 min 0,000 mm 0,0 UV-I 0 W/m 12,3 C 16,6 C 11,3 km/h (2 Bft) 100,00 %
29.09.2016 20:38 16,7 C 75 % 1017,2 hPa 0,0 l/m 4,2 km/h (1 Bft) S-SO 167 0 min 0,000 mm 0,0 UV-I 0 W/m 12,2 C 16,7 C 4,8 km/h (1 Bft) 100,00 %
29.09.2016 20:40 16,6 C 75 % 1017,2 hPa 0,0 l/m 3,8 km/h (1 Bft) S 174 0 min 0,000 mm 0,0 UV-I 0 W/m 12,1 C 16,6 C 8,0 km/h (2 Bft) 97,14 %
29.09.2016 20:42 16,5 C 75 % 1017,2 hPa 0,0 l/m 3,9 km/h (1 Bft) S 176 0 min 0,000 mm 0,0 UV-I 0 W/m 12,1 C 16,5 C 9,7 km/h (2 Bft) 97,87 %
29.09.2016 20:44 16,4 C 75 % 1017,2 hPa 0,0 l/m 3,3 km/h (1 Bft) S 170 0 min 0,000 mm 0,0 UV-I 0 W/m 12,0 C 16,4 C 8,0 km/h (2 Bft) 97,87 %
29.09.2016 20:46 16,4 C 76 % 1017,2 hPa 0,0 l/m 4,1 km/h (1 Bft) S 175 0 min 0,000 mm 0,0 UV-I 0 W/m 12,2 C 16,4 C 9,7 km/h (2 Bft) 97,62 %
29.09.2016 20:48 16,3 C 76 % 1017,2 hPa 0,0 l/m 3,5 km/h (1 Bft) S 182 0 min 0,000 mm 0,0 UV-I 0 W/m 12,1 C 16,3 C 6,4 km/h (2 Bft) 98,00 %
29.09.2016 20:50 16,3 C 76 % 1017,2 hPa 0,0 l/m 4,4 km/h (1 Bft) S 178 0 min 0,000 mm 0,0 UV-I 0 W/m 12,1 C 16,3 C 6,4 km/h (2 Bft) 97,37 %
29.09.2016 20:52 16,2 C 77 % 1017,3 hPa 0,0 l/m 5,2 km/h (1 Bft) S 178 0 min 0,000 mm 0,0 UV-I 0 W/m 12,2 C 16,2 C 9,7 km/h (2 Bft) 96,43 %
29.09.2016 20:54 15,9 C 78 % 1017,3 hPa 0,0 l/m 4,6 km/h (1 Bft) S 180 0 min 0,000 mm 0,0 UV-I 0 W/m 12,1 C 15,9 C 6,4 km/h (2 Bft) 98,11 %
29.09.2016 20:56 15,8 C 80 % 1017,2 hPa 0,0 l/m 4,7 km/h (1 Bft) S 188 0 min 0,000 mm 0,0 UV-I 0 W/m 12,4 C 15,8 C 6,4 km/h (2 Bft) 97,87 %
29.09.2016 20:58 15,6 C 80 % 1017,3 hPa 0,0 l/m 5,0 km/h (1 Bft) S 185 0 min 0,000 mm 0,0 UV-I 0 W/m 12,2 C 15,6 C 6,4 km/h (2 Bft) 97,14 %
29.09.2016 21:00 15,5 C 80 % 1017,2 hPa 0,0 l/m 6,2 km/h (2 Bft) S 178 0 min 0,026 mm 0,0 UV-I 0 W/m 12,1 C 15,5 C 9,7 km/h (2 Bft) 96,00 %
29.09.2016 21:02 15,5 C 80 % 1017,2 hPa 0,0 l/m 6,1 km/h (2 Bft) S 184 0 min 0,000 mm 0,0 UV-I 0 W/m 12,1 C 15,5 C 9,7 km/h (2 Bft) 95,74 %
29.09.2016 21:04 15,6 C 80 % 1017,2 hPa 0,0 l/m 6,8 km/h (2 Bft) S 179 0 min 0,000 mm 0,0 UV-I 0 W/m 12,2 C 15,4 C 9,7 km/h (2 Bft) 98,21 %
29.09.2016 21:06 15,6 C 79 % 1017,2 hPa 0,0 l/m 5,2 km/h (1 Bft) S 175 0 min 0,000 mm 0,0 UV-I 0 W/m 12,0 C 15,6 C 8,0 km/h (2 Bft) 95,45 %
29.09.2016 21:08 15,6 C 79 % 1017,2 hPa 0,0 l/m 3,8 km/h (1 Bft) S 175 0 min 0,000 mm 0,0 UV-I 0 W/m 12,0 C 15,6 C 4,8 km/h (1 Bft) 100,00 %
29.09.2016 21:10 15,6 C 79 % 1017,2 hPa 0,0 l/m 4,6 km/h (1 Bft) S-SW 197 0 min 0,000 mm 0,0 UV-I 0 W/m 12,0 C 15,6 C 6,4 km/h (2 Bft) 100,00 %
29.09.2016 21:12 15,6 C 79 % 1017,3 hPa 0,0 l/m 5,2 km/h (1 Bft) S-SW 208 0 min 0,000 mm 0,0 UV-I 0 W/m 12,0 C 15,6 C 8,0 km/h (2 Bft) 100,00 %
29.09.2016 21:14 15,6 C 79 % 1017,2 hPa 0,0 l/m 5,2 km/h (1 Bft) S-SW 195 0 min 0,000 mm 0,0 UV-I 0 W/m 12,0 C 15,6 C 8,0 km/h (2 Bft) 100,00 %
29.09.2016 21:16 15,6 C 78 % 1017,3 hPa 0,0 l/m 5,6 km/h (1 Bft) S-SW 193 0 min 0,000 mm 0,0 UV-I 0 W/m 11,8 C 15,6 C 9,7 km/h (2 Bft) 100,00 %
29.09.2016 21:18 15,6 C 78 % 1017,3 hPa 0,0 l/m 6,1 km/h (2 Bft) S 186 0 min 0,000 mm 0,0 UV-I 0 W/m 11,8 C 15,6 C 8,0 km/h (2 Bft) 100,00 %
29.09.2016 21:20 15,6 C 78 % 1017,2 hPa 0,0 l/m 4,2 km/h (1 Bft) S 174 0 min 0,000 mm 0,0 UV-I 0 W/m 11,8 C 15,6 C 8,0 km/h (2 Bft) 100,00 %
29.09.2016 21:22 15,6 C 78 % 1017,2 hPa 0,0 l/m 5,8 km/h (2 Bft) S 180 0 min 0,000 mm 0,0 UV-I 0 W/m 11,8 C 15,6 C 9,7 km/h (2 Bft) 100,00 %
29.09.2016 21:24 15,6 C 78 % 1017,2 hPa 0,0 l/m 5,9 km/h (2 Bft) S 186 0 min 0,000 mm 0,0 UV-I 0 W/m 11,8 C 15,6 C 9,7 km/h (2 Bft) 100,00 %
29.09.2016 21:26 15,6 C 78 % 1017,2 hPa 0,0 l/m 6,3 km/h (2 Bft) S-SO 167 0 min 0,000 mm 0,0 UV-I 0 W/m 11,8 C 15,6 C 8,0 km/h (2 Bft) 100,00 %
29.09.2016 21:28 15,6 C 78 % 1017,2 hPa 0,0 l/m 5,0 km/h (1 Bft) S 182 0 min 0,000 mm 0,0 UV-I 0 W/m 11,8 C 15,6 C 8,0 km/h (2 Bft) 100,00 %
29.09.2016 21:30 15,4 C 78 % 1017,2 hPa 0,0 l/m 3,5 km/h (1 Bft) S 171 0 min 0,000 mm 0,0 UV-I 0 W/m 11,6 C 15,4 C 8,0 km/h (2 Bft) 100,00 %
29.09.2016 21:32 15,4 C 78 % 1017,2 hPa 0,0 l/m 5,7 km/h (1 Bft) S 186 0 min 0,000 mm 0,0 UV-I 0 W/m 11,6 C 15,4 C 8,0 km/h (2 Bft) 100,00 %
29.09.2016 21:34 15,3 C 79 % 1017,2 hPa 0,0 l/m 4,9 km/h (1 Bft) S 177 0 min 0,000 mm 0,0 UV-I 0 W/m 11,7 C 15,3 C 8,0 km/h (2 Bft) 100,00 %
29.09.2016 21:36 15,3 C 79 % 1017,2 hPa 0,0 l/m 5,1 km/h (1 Bft) S 178 0 min 0,000 mm 0,0 UV-I 0 W/m 11,7 C 15,3 C 8,0 km/h (2 Bft) 100,00 %
29.09.2016 21:38 15,3 C 79 % 1017,2 hPa 0,0 l/m 6,3 km/h (2 Bft) S 182 0 min 0,000 mm 0,0 UV-I 0 W/m 11,7 C 15,3 C 9,7 km/h (2 Bft) 100,00 %
29.09.2016 21:40 15,3 C 78 % 1017,2 hPa 0,0 l/m 6,8 km/h (2 Bft) S-SW 192 0 min 0,000 mm 0,0 UV-I 0 W/m 11,5 C 15,1 C 9,7 km/h (2 Bft) 100,00 %
29.09.2016 21:42 15,3 C 78 % 1017,2 hPa 0,0 l/m 9,1 km/h (2 Bft) S-SW 192 0 min 0,000 mm 0,0 UV-I 0 W/m 11,5 C 13,9 C 12,9 km/h (3 Bft) 100,00 %
29.09.2016 21:44 15,3 C 78 % 1017,2 hPa 0,0 l/m 8,1 km/h (2 Bft) S 173 0 min 0,000 mm 0,0 UV-I 0 W/m 11,5 C 14,4 C 11,3 km/h (2 Bft) 100,00 %
29.09.2016 21:46 15,4 C 78 % 1017,2 hPa 0,0 l/m 8,3 km/h (2 Bft) S 189 0 min 0,000 mm 0,0 UV-I 0 W/m 11,6 C 14,4 C 14,5 km/h (3 Bft) 100,00 %
29.09.2016 21:48 15,3 C 78 % 1017,2 hPa 0,0 l/m 3,7 km/h (1 Bft) S-SW 211 0 min 0,000 mm 0,0 UV-I 0 W/m 11,5 C 15,3 C 4,8 km/h (1 Bft) 100,00 %
29.09.2016 21:50 15,2 C 78 % 1017,2 hPa 0,0 l/m 5,1 km/h (1 Bft) S 174 0 min 0,000 mm 0,0 UV-I 0 W/m 11,4 C 15,2 C 9,7 km/h (2 Bft) 100,00 %
29.09.2016 21:52 15,2 C 79 % 1017,2 hPa 0,0 l/m 5,1 km/h (1 Bft) S 186 0 min 0,000 mm 0,0 UV-I 0 W/m 11,6 C 15,2 C 8,0 km/h (2 Bft) 100,00 %
29.09.2016 21:54 15,1 C 79 % 1017,2 hPa 0,0 l/m 5,6 km/h (1 Bft) S-SW 202 0 min 0,000 mm 0,0 UV-I 0 W/m 11,5 C 15,1 C 11,3 km/h (2 Bft) 100,00 %
29.09.2016 21:56 14,9 C 80 % 1017,2 hPa 0,0 l/m 4,2 km/h (1 Bft) S-SW 207 0 min 0,000 mm 0,0 UV-I 0 W/m 11,5 C 14,9 C 6,4 km/h (2 Bft) 100,00 %
29.09.2016 21:58 14,8 C 80 % 1017,2 hPa 0,0 l/m 4,4 km/h (1 Bft) S 176 0 min 0,000 mm 0,0 UV-I 0 W/m 11,4 C 14,8 C 6,4 km/h (2 Bft) 100,00 %
29.09.2016 22:00 14,7 C 80 % 1017,1 hPa 0,0 l/m 4,3 km/h (1 Bft) S 178 0 min 0,000 mm 0,0 UV-I 0 W/m 11,3 C 14,7 C 6,4 km/h (2 Bft) 100,00 %
29.09.2016 22:02 14,7 C 80 % 1017,2 hPa 0,0 l/m 5,2 km/h (1 Bft) S-SW 196 0 min 0,025 mm 0,0 UV-I 0 W/m 11,3 C 14,7 C 6,4 km/h (2 Bft) 100,00 %
29.09.2016 22:04 14,7 C 80 % 1017,1 hPa 0,0 l/m 5,5 km/h (1 Bft) S 189 0 min 0,000 mm 0,0 UV-I 0 W/m 11,3 C 14,7 C 8,0 km/h (2 Bft) 98,08 %
29.09.2016 22:06 14,7 C 81 % 1017,2 hPa 0,0 l/m 4,4 km/h (1 Bft) S-SO 159 0 min 0,000 mm 0,0 UV-I 0 W/m 11,5 C 14,7 C 6,4 km/h (2 Bft) 97,62 %
29.09.2016 22:08 14,6 C 80 % 1017,1 hPa 0,0 l/m 5,7 km/h (1 Bft) S 187 0 min 0,000 mm 0,0 UV-I 0 W/m 11,2 C 14,6 C 9,7 km/h (2 Bft) 100,00 %
29.09.2016 22:10 14,7 C 80 % 1017,1 hPa 0,0 l/m 7,7 km/h (2 Bft) S 191 0 min 0,000 mm 0,0 UV-I 0 W/m 11,3 C 14,0 C 11,3 km/h (2 Bft) 100,00 %
29.09.2016 22:12 14,7 C 80 % 1017,1 hPa 0,0 l/m 7,2 km/h (2 Bft) S 173 0 min 0,000 mm 0,0 UV-I 0 W/m 11,3 C 14,2 C 11,3 km/h (2 Bft) 100,00 %
29.09.2016 22:14 14,7 C 80 % 1017,1 hPa 0,0 l/m 7,5 km/h (2 Bft) S 177 0 min 0,000 mm 0,0 UV-I 0 W/m 11,3 C 14,1 C 11,3 km/h (2 Bft) 100,00 %
29.09.2016 22:16 14,7 C 80 % 1017,1 hPa 0,0 l/m 8,0 km/h (2 Bft) S 182 0 min 0,000 mm 0,0 UV-I 0 W/m 11,3 C 13,8 C 11,3 km/h (2 Bft) 98,00 %
29.09.2016 22:18 14,7 C 80 % 1017,1 hPa 0,0 l/m 7,2 km/h (2 Bft) S 176 0 min 0,000 mm 0,0 UV-I 0 W/m 11,3 C 14,2 C 11,3 km/h (2 Bft) 100,00 %
29.09.2016 22:20 14,6 C 80 % 1017,1 hPa 0,0 l/m 7,3 km/h (2 Bft) S-SO 155 0 min 0,000 mm 0,0 UV-I 0 W/m 11,2 C 14,1 C 9,7 km/h (2 Bft) 100,00 %
29.09.2016 22:22 14,6 C 80 % 1017,0 hPa 0,0 l/m 7,8 km/h (2 Bft) S 176 0 min 0,000 mm 0,0 UV-I 0 W/m 11,2 C 13,8 C 11,3 km/h (2 Bft) 97,87 %
29.09.2016 22:24 14,6 C 81 % 1017,0 hPa 0,0 l/m 7,2 km/h (2 Bft) S-SW 196 0 min 0,000 mm 0,0 UV-I 0 W/m 11,4 C 14,1 C 9,7 km/h (2 Bft) 100,00 %
29.09.2016 22:26 14,6 C 81 % 1017,0 hPa 0,0 l/m 7,5 km/h (2 Bft) S-SW 192 0 min 0,000 mm 0,0 UV-I 0 W/m 11,4 C 14,0 C 12,9 km/h (3 Bft) 100,00 %
29.09.2016 22:28 14,6 C 80 % 1017,0 hPa 0,0 l/m 6,3 km/h (2 Bft) S-SW 197 0 min 0,000 mm 0,0 UV-I 0 W/m 11,2 C 14,6 C 9,7 km/h (2 Bft) 100,00 %
29.09.2016 22:30 14,5 C 80 % 1017,0 hPa 0,0 l/m 6,6 km/h (2 Bft) S 182 0 min 0,000 mm 0,0 UV-I 0 W/m 11,1 C 14,4 C 11,3 km/h (2 Bft) 100,00 %
29.09.2016 22:32 14,4 C 81 % 1017,0 hPa 0,0 l/m 5,8 km/h (2 Bft) S-SO 167 0 min 0,000 mm 0,0 UV-I 0 W/m 11,2 C 14,4 C 8,0 km/h (2 Bft) 97,56 %
29.09.2016 22:34 14,4 C 81 % 1017,0 hPa 0,0 l/m 6,1 km/h (2 Bft) S-SW 205 0 min 0,000 mm 0,0 UV-I 0 W/m 11,2 C 14,4 C 9,7 km/h (2 Bft) 96,43 %
29.09.2016 22:36 14,4 C 81 % 1017,0 hPa 0,0 l/m 6,0 km/h (2 Bft) S-SW 207 0 min 0,000 mm 0,0 UV-I 0 W/m 11,2 C 14,4 C 9,7 km/h (2 Bft) 97,14 %
29.09.2016 22:38 14,4 C 81 % 1017,0 hPa 0,0 l/m 5,5 km/h (1 Bft) S 188 0 min 0,000 mm 0,0 UV-I 0 W/m 11,2 C 14,4 C 8,0 km/h (2 Bft) 95,74 %
29.09.2016 22:40 14,3 C 81 % 1016,9 hPa 0,0 l/m 6,5 km/h (2 Bft) S 186 0 min 0,000 mm 0,0 UV-I 0 W/m 11,1 C 14,3 C 9,7 km/h (2 Bft) 97,92 %
29.09.2016 22:42 14,3 C 82 % 1017,0 hPa 0,0 l/m 6,5 km/h (2 Bft) S-SW 204 0 min 0,000 mm 0,0 UV-I 0 W/m 11,3 C 14,3 C 9,7 km/h (2 Bft) 97,92 %
29.09.2016 22:44 14,2 C 82 % 1017,0 hPa 0,0 l/m 5,7 km/h (1 Bft) S-SW 202 0 min 0,000 mm 0,0 UV-I 0 W/m 11,2 C 14,2 C 8,0 km/h (2 Bft) 98,18 %
29.09.2016 22:46 14,2 C 82 % 1017,0 hPa 0,0 l/m 6,0 km/h (2 Bft) S-SW 196 0 min 0,000 mm 0,0 UV-I 0 W/m 11,2 C 14,2 C 6,4 km/h (2 Bft) 94,87 %
29.09.2016 22:48 14,2 C 82 % 1017,0 hPa 0,0 l/m 5,4 km/h (1 Bft) S-SW 195 0 min 0,000 mm 0,0 UV-I 0 W/m 11,2 C 14,2 C 8,0 km/h (2 Bft) 98,00 %
29.09.2016 22:50 14,2 C 82 % 1017,0 hPa 0,0 l/m 6,7 km/h (2 Bft) S-SW 192 0 min 0,000 mm 0,0 UV-I 0 W/m 11,2 C 14,0 C 9,7 km/h (2 Bft) 94,00 %
29.09.2016 22:52 14,1 C 82 % 1017,0 hPa 0,0 l/m 6,1 km/h (2 Bft) S 185 0 min 0,000 mm 0,0 UV-I 0 W/m 11,1 C 14,1 C 8,0 km/h (2 Bft) 97,87 %
29.09.2016 22:54 14,1 C 82 % 1017,0 hPa 0,0 l/m 5,9 km/h (2 Bft) S-SW 208 0 min 0,000 mm 0,0 UV-I 0 W/m 11,1 C 14,1 C 9,7 km/h (2 Bft) 97,37 %
29.09.2016 22:56 14,1 C 82 % 1017,0 hPa 0,0 l/m 6,7 km/h (2 Bft) S-SW 193 0 min 0,000 mm 0,0 UV-I 0 W/m 11,1 C 13,9 C 9,7 km/h (2 Bft) 95,74 %
29.09.2016 22:58 14,0 C 82 % 1017,1 hPa 0,0 l/m 6,3 km/h (2 Bft) S-SW 192 0 min 0,000 mm 0,0 UV-I 0 W/m 11,0 C 14,0 C 8,0 km/h (2 Bft) 98,00 %
29.09.2016 23:00 13,9 C 82 % 1017,1 hPa 0,0 l/m 5,4 km/h (1 Bft) S 173 0 min 0,000 mm 0,0 UV-I 0 W/m 10,9 C 13,9 C 8,0 km/h (2 Bft) 98,00 %
29.09.2016 23:02 13,9 C 82 % 1017,1 hPa 0,0 l/m 5,0 km/h (1 Bft) S 173 0 min 0,025 mm 0,0 UV-I 0 W/m 10,9 C 13,9 C 8,0 km/h (2 Bft) 96,00 %
29.09.2016 23:04 13,9 C 82 % 1017,1 hPa 0,0 l/m 4,1 km/h (1 Bft) S 181 0 min 0,000 mm 0,0 UV-I 0 W/m 10,9 C 13,9 C 8,0 km/h (2 Bft) 97,56 %
29.09.2016 23:06 13,9 C 83 % 1017,1 hPa 0,0 l/m 4,1 km/h (1 Bft) S-SW 209 0 min 0,000 mm 0,0 UV-I 0 W/m 11,1 C 13,9 C 6,4 km/h (2 Bft) 100,00 %
29.09.2016 23:08 13,9 C 83 % 1017,1 hPa 0,0 l/m 4,9 km/h (1 Bft) S-SW 194 0 min 0,000 mm 0,0 UV-I 0 W/m 11,1 C 13,9 C 6,4 km/h (2 Bft) 96,00 %
29.09.2016 23:10 13,8 C 83 % 1017,1 hPa 0,0 l/m 5,1 km/h (1 Bft) SW 214 0 min 0,000 mm 0,0 UV-I 0 W/m 11,0 C 13,8 C 6,4 km/h (2 Bft) 100,00 %
29.09.2016 23:12 13,9 C 83 % 1017,2 hPa 0,0 l/m 5,9 km/h (2 Bft) S 191 0 min 0,000 mm 0,0 UV-I 0 W/m 11,1 C 13,9 C 9,7 km/h (2 Bft) 100,00 %
29.09.2016 23:14 13,9 C 83 % 1017,1 hPa 0,0 l/m 6,0 km/h (2 Bft) S 176 0 min 0,000 mm 0,0 UV-I 0 W/m 11,1 C 13,9 C 8,0 km/h (2 Bft) 98,11 %
29.09.2016 23:16 13,9 C 82 % 1017,1 hPa 0,0 l/m 6,2 km/h (2 Bft) S-SW 209 0 min 0,000 mm 0,0 UV-I 0 W/m 10,9 C 13,9 C 8,0 km/h (2 Bft) 100,00 %
29.09.2016 23:18 13,9 C 82 % 1017,1 hPa 0,0 l/m 5,9 km/h (2 Bft) S-SW 205 0 min 0,000 mm 0,0 UV-I 0 W/m 10,9 C 13,9 C 11,3 km/h (2 Bft) 97,87 %
29.09.2016 23:20 13,9 C 82 % 1017,1 hPa 0,0 l/m 3,9 km/h (1 Bft) S-SW 200 0 min 0,000 mm 0,0 UV-I 0 W/m 10,9 C 13,9 C 6,4 km/h (2 Bft) 100,00 %
29.09.2016 23:22 13,9 C 82 % 1017,2 hPa 0,0 l/m 4,1 km/h (1 Bft) S-SW 204 0 min 0,000 mm 0,0 UV-I 0 W/m 10,9 C 13,9 C 6,4 km/h (2 Bft) 100,00 %
29.09.2016 23:24 13,9 C 82 % 1017,1 hPa 0,0 l/m 4,5 km/h (1 Bft) S 191 0 min 0,000 mm 0,0 UV-I 0 W/m 10,9 C 13,9 C 6,4 km/h (2 Bft) 98,11 %
29.09.2016 23:26 13,9 C 82 % 1017,1 hPa 0,0 l/m 4,8 km/h (1 Bft) S-SW 192 0 min 0,000 mm 0,0 UV-I 0 W/m 10,9 C 13,9 C 8,0 km/h (2 Bft) 97,87 %
29.09.2016 23:28 13,9 C 82 % 1017,1 hPa 0,0 l/m 5,9 km/h (2 Bft) S-SW 202 0 min 0,000 mm 0,0 UV-I 0 W/m 10,9 C 13,9 C 6,4 km/h (2 Bft) 100,00 %
29.09.2016 23:30 13,9 C 81 % 1017,1 hPa 0,0 l/m 7,0 km/h (2 Bft) S-SW 205 0 min 0,000 mm 0,0 UV-I 0 W/m 10,7 C 13,5 C 11,3 km/h (2 Bft) 100,00 %
29.09.2016 23:32 13,9 C 81 % 1017,1 hPa 0,0 l/m 5,1 km/h (1 Bft) S-SW 207 0 min 0,000 mm 0,0 UV-I 0 W/m 10,7 C 13,9 C 9,7 km/h (2 Bft) 98,11 %
29.09.2016 23:34 13,9 C 81 % 1017,1 hPa 0,0 l/m 5,7 km/h (1 Bft) S 178 0 min 0,000 mm 0,0 UV-I 0 W/m 10,7 C 13,9 C 8,0 km/h (2 Bft) 98,00 %
29.09.2016 23:36 13,9 C 81 % 1017,1 hPa 0,0 l/m 5,4 km/h (1 Bft) SW 227 0 min 0,000 mm 0,0 UV-I 0 W/m 10,7 C 13,9 C 8,0 km/h (2 Bft) 100,00 %
29.09.2016 23:38 13,9 C 81 % 1017,2 hPa 0,0 l/m 6,5 km/h (2 Bft) S 171 0 min 0,000 mm 0,0 UV-I 0 W/m 10,7 C 13,9 C 8,0 km/h (2 Bft) 98,11 %
29.09.2016 23:40 13,9 C 81 % 1017,2 hPa 0,0 l/m 4,6 km/h (1 Bft) S 170 0 min 0,000 mm 0,0 UV-I 0 W/m 10,7 C 13,9 C 9,7 km/h (2 Bft) 98,11 %
29.09.2016 23:42 13,9 C 81 % 1017,2 hPa 0,0 l/m 7,4 km/h (2 Bft) S 173 0 min 0,000 mm 0,0 UV-I 0 W/m 10,7 C 13,3 C 9,7 km/h (2 Bft) 100,00 %
29.09.2016 23:44 13,9 C 81 % 1017,2 hPa 0,0 l/m 7,0 km/h (2 Bft) S-SW 205 0 min 0,000 mm 0,0 UV-I 0 W/m 10,7 C 13,5 C 9,7 km/h (2 Bft) 98,11 %
29.09.2016 23:46 13,9 C 82 % 1017,3 hPa 0,0 l/m 6,8 km/h (2 Bft) S 170 0 min 0,000 mm 0,0 UV-I 0 W/m 10,9 C 13,7 C 9,7 km/h (2 Bft) 100,00 %
29.09.2016 23:48 13,9 C 82 % 1017,3 hPa 0,0 l/m 6,3 km/h (2 Bft) S 180 0 min 0,000 mm 0,0 UV-I 0 W/m 10,9 C 13,9 C 9,7 km/h (2 Bft) 96,00 %
29.09.2016 23:50 13,8 C 82 % 1017,3 hPa 0,0 l/m 5,7 km/h (1 Bft) S-SW 209 0 min 0,000 mm 0,0 UV-I 0 W/m 10,8 C 13,8 C 9,7 km/h (2 Bft) 97,87 %
29.09.2016 23:52 13,8 C 82 % 1017,3 hPa 0,0 l/m 5,1 km/h (1 Bft) S-SW 213 0 min 0,000 mm 0,0 UV-I 0 W/m 10,8 C 13,8 C 8,0 km/h (2 Bft) 100,00 %
29.09.2016 23:54 13,8 C 82 % 1017,3 hPa 0,0 l/m 5,9 km/h (2 Bft) S 170 0 min 0,000 mm 0,0 UV-I 0 W/m 10,8 C 13,8 C 8,0 km/h (2 Bft) 100,00 %
29.09.2016 23:56 13,8 C 82 % 1017,4 hPa 0,0 l/m 6,1 km/h (2 Bft) S-SW 213 0 min 0,000 mm 0,0 UV-I 0 W/m 10,8 C 13,8 C 8,0 km/h (2 Bft) 97,87 %
29.09.2016 23:58 13,8 C 82 % 1017,3 hPa 0,0 l/m 5,9 km/h (2 Bft) S-SW 200 0 min 0,000 mm 0,0 UV-I 0 W/m 10,8 C 13,8 C 9,7 km/h (2 Bft) 97,73 %
_ Min-Zeit 07:16 16:02 22:40 - 07:46 - - - - - - 07:16 03:22 07:46 05:42
Minimum _ 12,2 C 47 % 1016,9 hPa - 0,0 km/h (0 Bft) - - - - - - 10,6 C 11,1 C 0,0 km/h (0 Bft) 92,11 %
_ Max-Zeit 15:58 07:18 00:24 00:00 03:22 - - 11:46 13:00 12:28 13:04 18:16 15:58 03:22 00:00
Maximum _ 23,9 C 91 % 1026,5 hPa 0,0 l/m 14,8 km/h
SW (3 Bft)
- - 6 min 0,381 mm 3,4 UV-I 626 W/m 14,7 C 23,9 C 20,9 km/h
W-SW (4 Bft)
100,00 %
Durchschnitt _ 17,3 C 74 % 1021,7 hPa #0,0 l/m 4,7 km/h (1 Bft) SW - #10:25 h #2,946 mm 2,1 UV-I 363 W/m 12,3 C 16,9 C 7,8 km/h (2 Bft) 98,61 %